DJ4CK-1 Weather Reports


Display with metric or nautical units.
time (UTC)temp
F
wind
direction
speed
MPH
gust
MPH
rain 1hr
in
rain 24hr
in
rain mn
in
humidity
%
barometer
mb
20260506015306 52 192 3.0 5.0 0.00 0.00 0.00 84 1008.0
20260506015204 52 194 3.0 5.0 0.00 0.00 0.00 84 1008.0
20260506015104 52 195 3.0 7.0 0.00 0.00 0.00 84 1008.1
20260506015004 52 196 3.0 7.0 0.00 0.00 0.00 83 1008.1
20260506014903 52 196 4.0 7.0 0.00 0.00 0.00 82 1008.1
20260506014803 52 197 4.0 7.0 0.00 0.00 0.00 82 1008.1
20260506014703 52 197 3.0 5.0 0.00 0.00 0.00 82 1008.1
20260506014604 52 196 3.0 5.0 0.00 0.00 0.00 83 1008.1
20260506014504 52 195 3.0 5.0 0.00 0.00 0.00 83 1008.1
20260506014403 52 194 3.0 5.0 0.00 0.00 0.00 83 1008.1
20260506014304 52 193 3.0 5.0 0.00 0.00 0.00 83 1008.1
20260506014204 52 191 2.0 4.0 0.00 0.00 0.00 83 1008.1
20260506014104 52 187 3.0 4.0 0.00 0.00 0.00 83 1008.1
20260506014004 52 185 3.0 4.0 0.00 0.00 0.00 83 1008.1
20260506013904 52 185 3.0 4.0 0.00 0.00 0.00 83 1008.1
20260506013803 52 186 2.0 4.0 0.00 0.00 0.00 83 1008.1
20260506013703 53 190 2.0 4.0 0.00 0.00 0.00 83 1008.1
20260506013603 52 193 1.0 3.0 0.00 0.00 0.00 83 1008.1
20260506013503 52 195 1.0 3.0 0.00 0.00 0.00 83 1008.2
20260506013403 53 196 1.0 3.0 0.00 0.00 0.00 83 1008.2
20260506013303 53 196 2.0 4.0 0.00 0.00 0.00 82 1008.2
20260506013204 53 195 2.0 5.0 0.00 0.00 0.00 82 1008.2
20260506013103 53 194 2.0 5.0 0.00 0.00 0.00 83 1008.2
20260506013003 53 193 2.0 5.0 0.00 0.00 0.00 83 1008.2
20260506012903 53 191 2.0 5.0 0.00 0.00 0.00 83 1008.2
20260506012803 53 189 2.0 4.0 0.00 0.00 0.00 82 1008.2
20260506012703 53 190 2.0 4.0 0.00 0.00 0.00 82 1008.3
20260506012604 53 188 3.0 7.0 0.00 0.00 0.00 82 1008.3
20260506012504 53 188 2.0 7.0 0.00 0.00 0.00 82 1008.3
20260506012403 53 188 2.0 7.0 0.00 0.00 0.00 82 1008.3
20260506012307 53 188 2.0 7.0 0.00 0.00 0.00 82 1008.3
20260506012204 53 188 2.0 5.0 0.00 0.00 0.00 83 1008.3
20260506012104 53 186 3.0 5.0 0.00 0.00 0.00 83 1008.3
20260506012003 53 186 3.0 5.0 0.00 0.00 0.00 83 1008.3
20260506011903 53 186 3.0 5.0 0.00 0.00 0.00 83 1008.3
20260506011803 53 189 2.0 5.0 0.00 0.00 0.00 83 1008.3
20260506011703 53 193 2.0 4.0 0.00 0.00 0.00 83 1008.3
20260506011604 53 199 2.0 3.0 0.00 0.00 0.00 83 1008.3
20260506011504 52 203 2.0 3.0 0.00 0.00 0.00 83 1008.3
20260506011403 52 205 1.0 3.0 0.00 0.00 0.00 83 1008.3
20260506011303 52 206 1.0 3.0 0.00 0.00 0.00 83 1008.3
20260506011203 52 202 1.0 4.0 0.00 0.00 0.00 83 1008.3
20260506011103 53 197 1.0 4.0 0.00 0.00 0.00 83 1008.3
20260506011003 53 197 1.0 4.0 0.00 0.00 0.00 83 1008.3
20260506010903 53 197 1.0 4.0 0.00 0.00 0.00 83 1008.3
20260506010803 53 197 0.0 4.0 0.00 0.00 0.00 83 1008.3
20260506010703 53 204 0.0 2.0 0.00 0.00 0.00 83 1008.3
20260506010603 53 208 1.0 2.0 0.00 0.00 0.00 83 1008.3
20260506010504 53 211 1.0 2.0 0.00 0.00 0.00 83 1008.3
20260506010403 53 210 1.0 4.0 0.00 0.00 0.00 82 1008.3
20260506010304 53 207 2.0 4.0 0.00 0.00 0.00 82 1008.4
20260506010204 53 205 2.0 4.0 0.00 0.00 0.00 81 1008.4
20260506010104 53 204 2.0 4.0 0.00 0.00 0.00 81 1008.4
20260506010004 53 203 2.0 4.0 0.00 0.00 0.00 81 1008.4
20260506005903 53 204 1.0 3.0 0.00 0.00 0.00 81 1008.4
20260506005804 53 204 1.0 3.0 0.00 0.00 0.00 81 1008.4
20260506005704 53 201 2.0 4.0 0.00 0.00 0.00 81 1008.4
20260506005604 53 198 1.0 4.0 0.00 0.00 0.00 81 1008.4
20260506005504 53 197 1.0 4.0 0.00 0.00 0.00 81 1008.4
20260506005404 53 197 1.0 4.0 0.00 0.00 0.00 81 1008.4
20260506005305 53 198 1.0 3.0 0.00 0.00 0.00 81 1008.4
20260506005203 53 200 1.0 4.0 0.00 0.00 0.00 81 1008.4
20260506005104 53 202 1.0 4.0 0.00 0.00 0.00 81 1008.4
20260506005004 53 204 1.0 4.0 0.00 0.00 0.00 81 1008.4
20260506004903 53 206 1.0 4.0 0.00 0.00 0.00 81 1008.4
20260506004803 53 212 1.0 3.0 0.00 0.00 0.00 81 1008.4
20260506004703 53 215 1.0 3.0 0.00 0.00 0.00 81 1008.4
20260506004604 53 216 1.0 3.0 0.00 0.00 0.00 81 1008.4
20260506004504 53 218 2.0 4.0 0.00 0.00 0.00 81 1008.4
20260506004403 53 219 2.0 5.0 0.00 0.00 0.00 81 1008.4
20260506004303 53 219 3.0 6.0 0.00 0.00 0.00 81 1008.4
20260506004203 54 219 2.0 6.0 0.00 0.00 0.00 81 1008.4
20260506004103 54 218 2.0 6.0 0.00 0.00 0.00 80 1008.4
20260506004004 54 215 1.0 6.0 0.00 0.00 0.00 80 1008.4
20260506003904 54 210 0.0 5.0 0.00 0.00 0.00 80 1008.5
20260506003804 54 206 0.0 2.0 0.00 0.00 0.00 81 1008.5
20260506003704 54 207 0.0 2.0 0.00 0.00 0.00 81 1008.5
20260506003604 54 212 1.0 5.0 0.00 0.00 0.00 81 1008.5
20260506003504 54 216 2.0 6.0 0.00 0.00 0.00 81 1008.5
20260506003404 54 217 2.0 6.0 0.00 0.00 0.00 81 1008.5
20260506003304 54 218 2.0 6.0 0.00 0.00 0.00 81 1008.5
20260506003204 54 219 2.0 6.0 0.00 0.00 0.00 81 1008.5
20260506003103 54 218 1.0 3.0 0.00 0.00 0.00 81 1008.5
20260506003003 54 216 0.0 2.0 0.00 0.00 0.00 81 1008.5
20260506002903 54 216 0.0 2.0 0.00 0.00 0.00 82 1008.5
20260506002803 54 214 1.0 2.0 0.00 0.00 0.00 81 1008.5
20260506002703 54 213 1.0 2.0 0.00 0.00 0.00 82 1008.5
20260506002604 54 213 1.0 2.0 0.00 0.00 0.00 81 1008.5
20260506002504 54 211 1.0 3.0 0.00 0.00 0.00 81 1008.5
20260506002404 54 212 1.0 3.0 0.00 0.00 0.00 82 1008.5
20260506002306 54 210 2.0 4.0 0.00 0.00 0.00 83 1008.5
20260506002203 54 208 2.0 4.0 0.00 0.00 0.00 83 1008.5
20260506002103 54 208 2.0 6.0 0.00 0.00 0.00 82 1008.5
20260506002004 54 207 3.0 6.0 0.00 0.00 0.00 82 1008.5
20260506001904 54 207 2.0 6.0 0.00 0.00 0.00 82 1008.5
20260506001803 54 208 2.0 6.0 0.00 0.00 0.00 82 1008.5
20260506001703 54 208 2.0 5.0 0.00 0.00 0.00 83 1008.5
20260506001604 54 206 1.0 4.0 0.00 0.00 0.00 83 1008.5
20260506001504 54 202 1.0 4.0 0.00 0.00 0.00 83 1008.5
20260506001403 54 201 1.0 4.0 0.00 0.00 0.00 83 1008.5
20260506001303 54 198 2.0 4.0 0.00 0.00 0.00 84 1008.5
20260506001203 54 196 3.0 7.0 0.00 0.00 0.00 83 1008.5
20260506001104 54 194 3.0 7.0 0.00 0.00 0.00 83 1008.5
20260506001004 54 192 3.0 7.0 0.00 0.00 0.00 83 1008.5
20260506000904 54 190 4.0 7.0 0.00 0.00 0.00 83 1008.5
20260506000803 54 186 3.0 7.0 0.00 0.00 0.00 83 1008.5
20260506000703 54 185 3.0 7.0 0.00 0.00 0.00 84 1008.5
20260506000603 53 186 2.0 7.0 0.00 0.00 0.00 85 1008.5
20260506000503 53 190 2.0 5.0 0.00 0.00 0.00 85 1008.5
20260506000404 53 194 2.0 5.0 0.00 0.00 0.00 85 1008.5
20260506000303 53 195 2.0 5.0 0.00 0.00 0.00 86 1008.5
20260506000205 53 195 2.0 5.0 0.00 0.00 0.00 86 1008.5
20260506000104 53 193 2.0 4.0 0.00 0.00 0.00 86 1008.5
20260505235903 53 187 2.0 5.0 0.00 0.00 0.00 87 1008.6
20260505235804 53 185 2.0 5.0 0.00 0.00 0.00 87 1008.6
20260505235703 53 184 2.0 5.0 0.00 0.00 0.00 87 1008.6
20260505235603 53 185 1.0 3.0 0.00 0.00 0.00 87 1008.6
20260505235503 53 186 2.0 3.0 0.00 0.00 0.00 87 1008.6
20260505235404 53 188 2.0 4.0 0.00 0.00 0.00 87 1008.6
20260505235305 53 189 2.0 4.0 0.00 0.00 0.00 87 1008.6
20260505235203 53 191 2.0 4.0 0.00 0.00 0.00 87 1008.6
20260505235104 53 192 2.0 4.0 0.00 0.00 0.00 87 1008.6
20260505235004 53 193 2.0 3.0 0.00 0.00 0.00 87 1008.6
20260505234903 53 190 2.0 4.0 0.00 0.00 0.00 87 1008.6
20260505234803 53 186 2.0 4.0 0.00 0.00 0.00 87 1008.6
20260505234703 53 184 3.0 4.0 0.00 0.00 0.00 87 1008.6
20260505234603 53 183 2.0 4.0 0.00 0.00 0.00 87 1008.6
20260505234503 53 183 2.0 4.0 0.00 0.00 0.00 87 1008.6
20260505234403 53 186 2.0 4.0 0.00 0.00 0.00 88 1008.6
20260505234304 53 187 2.0 3.0 0.00 0.00 0.00 89 1008.6
20260505234203 53 186 2.0 3.0 0.00 0.00 0.00 89 1008.6
20260505234103 53 184 2.0 3.0 0.00 0.00 0.00 89 1008.6
20260505234004 53 180 2.0 3.0 0.00 0.00 0.00 88 1008.6
20260505233903 53 178 2.0 3.0 0.00 0.00 0.00 88 1008.6
20260505233803 53 178 1.0 3.0 0.00 0.00 0.00 89 1008.6
20260505233703 53 179 1.0 3.0 0.00 0.00 0.00 89 1008.6
20260505233604 53 181 1.0 3.0 0.00 0.00 0.00 89 1008.6
20260505233504 53 179 1.0 4.0 0.00 0.00 0.00 89 1008.6
20260505233403 53 179 1.0 4.0 0.00 0.00 0.00 89 1008.6
20260505233303 53 179 1.0 4.0 0.00 0.00 0.00 89 1008.6
20260505233203 53 181 1.0 4.0 0.00 0.00 0.00 89 1008.6
20260505233103 53 186 1.0 3.0 0.00 0.00 0.00 89 1008.6
20260505233003 53 187 2.0 3.0 0.00 0.00 0.00 89 1008.6
20260505232903 53 187 2.0 3.0 0.00 0.00 0.00 89 1008.6
20260505232803 53 188 1.0 3.0 0.00 0.00 0.00 89 1008.6
20260505232704 53 186 1.0 2.0 0.00 0.00 0.00 89 1008.6
20260505232603 53 184 1.0 2.0 0.00 0.00 0.00 89 1008.6
20260505232503 53 187 1.0 3.0 0.00 0.00 0.00 89 1008.6
20260505232403 53 187 1.0 3.0 0.00 0.00 0.00 90 1008.7
20260505232305 53 186 1.0 3.0 0.00 0.00 0.00 90 1008.7
20260505232203 53 184 2.0 3.0 0.00 0.00 0.00 90 1008.7
20260505232103 53 182 2.0 3.0 0.00 0.00 0.00 89 1008.7
20260505232004 53 181 1.0 3.0 0.00 0.00 0.00 89 1008.7
20260505231904 53 181 1.0 3.0 0.00 0.00 0.00 89 1008.7
20260505231803 53 182 2.0 3.0 0.00 0.00 0.00 90 1008.7
20260505231703 53 182 2.0 3.0 0.00 0.00 0.00 90 1008.7
20260505231603 53 181 2.0 3.0 0.00 0.00 0.00 90 1008.7
20260505231504 53 178 2.0 3.0 0.00 0.00 0.00 90 1008.7
20260505231403 53 174 1.0 3.0 0.00 0.00 0.00 89 1008.7
20260505231303 53 171 1.0 2.0 0.00 0.00 0.00 89 1008.7
20260505231204 53 172 1.0 2.0 0.00 0.00 0.00 89 1008.6
20260505231103 53 176 1.0 2.0 0.00 0.00 0.00 89 1008.6
20260505231003 54 184 1.0 2.0 0.00 0.00 0.00 89 1008.7
20260505230903 54 191 1.0 2.0 0.00 0.00 0.00 89 1008.7
20260505230803 54 198 1.0 3.0 0.00 0.00 0.00 89 1008.7
20260505230703 54 200 1.0 3.0 0.00 0.00 0.00 89 1008.7
20260505230603 54 205 1.0 3.0 0.00 0.00 0.00 89 1008.7
20260505230504 54 212 1.0 3.0 0.00 0.00 0.00 89 1008.7
20260505230403 54 220 1.0 2.0 0.00 0.00 0.00 89 1008.8
20260505230303 54 223 1.0 2.0 0.00 0.00 0.00 89 1008.8
20260505230203 54 225 1.0 2.0 0.00 0.00 0.00 89 1008.8
20260505230104 54 227 1.0 2.0 0.00 0.00 0.00 89 1008.7
20260505230003 54 229 1.0 2.0 0.00 0.00 0.00 89 1008.7
20260505225903 54 229 1.0 2.0 0.00 0.00 0.00 89 1008.7
20260505225803 54 231 0.0 2.0 0.00 0.00 0.00 89 1008.8
20260505225703 54 235 0.0 1.0 0.00 0.00 0.00 89 1008.8
20260505225603 53 260 0.0 2.0 0.00 0.00 0.00 90 1008.8
20260505225504 53 254 1.0 2.0 0.00 0.00 0.00 90 1008.8
20260505225403 54 248 1.0 3.0 0.00 0.00 0.00 90 1008.7
20260505225305 54 244 1.0 3.0 0.00 0.00 0.00 90 1008.8
20260505225203 53 230 1.0 3.0 0.00 0.00 0.00 90 1008.7
20260505225104 54 226 1.0 3.0 0.00 0.00 0.00 90 1008.7
20260505225003 54 224 1.0 2.0 0.00 0.00 0.00 90 1008.7
20260505224903 54 223 1.0 2.0 0.00 0.00 0.00 90 1008.7
20260505224804 54 225 1.0 2.0 0.00 0.00 0.00 90 1008.7
20260505224703 54 228 1.0 2.0 0.00 0.00 0.00 90 1008.7
20260505224603 54 229 1.0 2.0 0.00 0.00 0.00 90 1008.7
20260505224503 54 230 1.0 3.0 0.00 0.00 0.00 90 1008.7
20260505224403 54 230 1.0 3.0 0.00 0.00 0.00 89 1008.7
20260505224303 54 229 1.0 3.0 0.00 0.00 0.00 89 1008.7
20260505224203 54 233 1.0 3.0 0.00 0.00 0.00 89 1008.7
20260505224103 54 236 0.0 2.0 0.00 0.00 0.00 89 1008.7
20260505224003 54 236 1.0 2.0 0.00 0.00 0.00 89 1008.6
20260505223903 54 238 1.0 2.0 0.00 0.00 0.00 89 1008.7
20260505223803 54 239 1.0 2.0 0.00 0.00 0.00 89 1008.7
20260505223703 54 241 1.0 2.0 0.00 0.00 0.00 89 1008.7
20260505223603 54 244 1.0 2.0 0.00 0.00 0.00 89 1008.6
20260505223503 54 247 1.0 2.0 0.00 0.00 0.00 90 1008.7
20260505223403 54 247 1.0 2.0 0.00 0.00 0.00 89 1008.7
20260505223303 54 251 1.0 3.0 0.00 0.00 0.00 89 1008.7
20260505223203 54 252 2.0 4.0 0.00 0.00 0.00 89 1008.7
20260505223103 54 252 2.0 4.0 0.00 0.00 0.00 89 1008.7
20260505223004 54 251 2.0 4.0 0.00 0.00 0.00 89 1008.7
20260505222903 54 252 2.0 4.0 0.00 0.00 0.00 89 1008.7
20260505222803 54 251 2.0 4.0 0.00 0.00 0.00 89 1008.7
20260505222704 54 251 2.0 4.0 0.00 0.00 0.00 90 1008.6
20260505222603 54 252 2.0 4.0 0.00 0.00 0.00 89 1008.6
20260505222503 54 250 1.0 4.0 0.00 0.00 0.00 89 1008.7
20260505222403 54 250 1.0 4.0 0.00 0.00 0.00 89 1008.6
20260505222305 54 250 2.0 4.0 0.00 0.00 0.00 89 1008.6
20260505222203 54 249 2.0 4.0 0.00 0.00 0.00 89 1008.6
20260505222103 54 248 2.0 4.0 0.00 0.00 0.00 89 1008.6
20260505222003 54 246 2.0 4.0 0.00 0.00 0.00 89 1008.6
20260505221903 54 246 2.0 3.0 0.00 0.00 0.00 89 1008.6
20260505221803 54 246 1.0 2.0 0.00 0.00 0.00 89 1008.6
20260505221703 54 248 1.0 3.0 0.00 0.00 0.00 89 1008.5
20260505221603 54 249 1.0 3.0 0.00 0.00 0.00 89 1008.5
20260505221503 54 247 1.0 4.0 0.00 0.00 0.00 89 1008.5
20260505221403 54 246 2.0 4.0 0.00 0.00 0.00 89 1008.5
20260505221303 54 246 2.0 4.0 0.00 0.00 0.00 89 1008.5
20260505221203 54 247 3.0 4.0 0.00 0.00 0.00 89 1008.5
20260505221103 54 247 2.0 4.0 0.00 0.00 0.00 88 1008.6
20260505221004 54 249 2.0 4.0 0.00 0.00 0.00 89 1008.6
20260505220903 54 250 2.0 4.0 0.00 0.00 0.00 89 1008.5
20260505220803 54 252 2.0 4.0 0.00 0.00 0.00 89 1008.5
20260505220703 54 255 2.0 4.0 0.00 0.00 0.00 89 1008.5
20260505220603 54 260 2.0 3.0 0.00 0.00 0.00 89 1008.5
20260505220503 54 261 2.0 4.0 0.00 0.00 0.00 89 1008.5
20260505220403 54 261 2.0 4.0 0.00 0.00 0.00 89 1008.5
20260505220303 54 260 2.0 4.0 0.00 0.00 0.00 89 1008.5
20260505220203 54 258 3.0 4.0 0.00 0.00 0.00 89 1008.5
20260505220103 54 259 3.0 4.0 0.00 0.00 0.00 89 1008.5
20260505220003 54 259 3.0 4.0 0.00 0.00 0.00 89 1008.5
20260505215904 54 259 3.0 4.0 0.00 0.00 0.00 89 1008.5
20260505215803 54 260 3.0 4.0 0.00 0.00 0.00 89 1008.5
20260505215703 54 260 3.0 5.0 0.00 0.00 0.00 89 1008.4
20260505215603 54 260 3.0 5.0 0.00 0.00 0.00 88 1008.4
20260505215503 54 262 3.0 5.0 0.00 0.00 0.00 88 1008.4
20260505215403 54 263 3.0 5.0 0.00 0.00 0.00 88 1008.3
20260505215305 54 264 3.0 5.0 0.00 0.00 0.00 88 1008.3
20260505215203 54 265 3.0 5.0 0.00 0.00 0.00 88 1008.3
20260505215103 54 265 3.0 4.0 0.00 0.00 0.00 88 1008.3
20260505215003 54 264 3.0 5.0 0.00 0.00 0.00 88 1008.3
20260505214903 54 265 3.0 5.0 0.00 0.00 0.00 88 1008.3
20260505214803 54 266 3.0 5.0 0.00 0.00 0.00 88 1008.2
20260505214703 54 267 3.0 6.0 0.00 0.00 0.00 87 1008.3
20260505214604 54 270 3.0 6.0 0.00 0.00 0.00 87 1008.3
20260505214503 54 272 3.0 6.0 0.00 0.00 0.00 88 1008.3
20260505214403 54 272 3.0 6.0 0.00 0.00 0.00 88 1008.3
20260505214303 54 273 2.0 4.0 0.00 0.00 0.00 88 1008.4
20260505214203 54 274 2.0 4.0 0.00 0.00 0.00 88 1008.4
20260505214103 54 274 2.0 3.0 0.00 0.00 0.00 88 1008.4
20260505214004 54 274 2.0 3.0 0.00 0.00 0.00 88 1008.3
20260505213903 54 272 2.0 3.0 0.00 0.00 0.00 87 1008.3
20260505213803 54 271 2.0 3.0 0.00 0.00 0.00 88 1008.3
20260505213704 54 270 2.0 3.0 0.00 0.00 0.00 88 1008.3
20260505213603 54 270 2.0 4.0 0.00 0.00 0.00 88 1008.3
20260505213503 54 269 3.0 4.0 0.00 0.00 0.00 88 1008.3
20260505213403 54 267 3.0 4.0 0.00 0.00 0.00 88 1008.3
20260505213303 54 266 3.0 4.0 0.00 0.00 0.00 88 1008.3
20260505213203 54 265 2.0 4.0 0.00 0.00 0.00 87 1008.3
20260505213103 54 264 2.0 4.0 0.00 0.00 0.00 87 1008.3
20260505213003 54 263 2.0 4.0 0.00 0.00 0.00 87 1008.3
20260505212903 54 263 2.0 4.0 0.00 0.00 0.00 87 1008.3
20260505212803 54 262 3.0 4.0 0.00 0.00 0.00 88 1008.3
20260505212704 54 261 2.0 4.0 0.00 0.00 0.00 87 1008.3
20260505212603 54 262 2.0 4.0 0.00 0.00 0.00 87 1008.3
20260505212503 54 263 2.0 4.0 0.00 0.00 0.00 87 1008.3
20260505212404 54 265 2.0 3.0 0.00 0.00 0.00 87 1008.3
20260505212305 54 267 2.0 3.0 0.00 0.00 0.00 87 1008.3
20260505212203 54 267 2.0 4.0 0.00 0.00 0.00 87 1008.3
20260505212103 54 268 2.0 4.0 0.00 0.00 0.00 87 1008.3
20260505212003 54 270 3.0 4.0 0.00 0.00 0.00 87 1008.3
20260505211903 55 272 3.0 4.0 0.00 0.00 0.00 88 1008.3
20260505211803 54 274 2.0 4.0 0.00 0.00 0.00 87 1008.3
20260505211703 55 275 2.0 4.0 0.00 0.00 0.00 87 1008.3
20260505211603 55 275 2.0 4.0 0.00 0.00 0.00 87 1008.3
20260505211503 55 275 2.0 3.0 0.00 0.00 0.00 87 1008.3
20260505211404 55 275 1.0 3.0 0.00 0.00 0.00 87 1008.3
20260505211303 55 277 2.0 3.0 0.00 0.00 0.00 87 1008.3
20260505211203 55 280 2.0 3.0 0.00 0.00 0.00 87 1008.3
20260505211104 55 283 2.0 4.0 0.00 0.00 0.00 86 1008.4
20260505211003 55 284 2.0 4.0 0.00 0.00 0.00 86 1008.4
20260505210903 55 284 2.0 4.0 0.00 0.00 0.00 87 1008.4
20260505210803 55 284 2.0 4.0 0.00 0.00 0.00 86 1008.4
20260505210703 55 282 2.0 4.0 0.00 0.00 0.00 86 1008.4
20260505210603 55 281 2.0 4.0 0.00 0.00 0.00 86 1008.4
20260505210504 55 280 2.0 4.0 0.00 0.00 0.00 87 1008.4
20260505210403 55 278 2.0 4.0 0.00 0.00 0.00 87 1008.4
20260505210303 55 276 2.0 4.0 0.00 0.00 0.00 88 1008.3
20260505210203 55 274 2.0 4.0 0.00 0.00 0.00 87 1008.3
20260505210003 55 270 2.0 3.0 0.00 0.00 0.00 88 1008.3
20260505205903 55 269 2.0 3.0 0.00 0.00 0.00 87 1008.2
20260505205803 55 269 2.0 3.0 0.00 0.00 0.00 87 1008.2
20260505205703 55 270 2.0 3.0 0.00 0.00 0.00 88 1008.2
20260505205603 54 270 2.0 3.0 0.00 0.00 0.00 87 1008.2
20260505205504 54 271 2.0 3.0 0.00 0.00 0.00 88 1008.2
20260505205403 54 271 2.0 3.0 0.00 0.00 0.00 88 1008.1
20260505205305 54 272 2.0 3.0 0.00 0.00 0.00 87 1008.1
20260505205203 55 272 2.0 3.0 0.00 0.00 0.00 88 1008.1
20260505205104 55 271 2.0 3.0 0.00 0.00 0.00 88 1008.1
20260505205003 55 270 2.0 3.0 0.00 0.00 0.00 88 1008.1
20260505204903 55 270 2.0 3.0 0.00 0.00 0.00 87 1008.1
20260505204803 55 271 2.0 3.0 0.00 0.00 0.00 87 1008.1
20260505204703 55 274 2.0 3.0 0.00 0.00 0.00 87 1008.1
20260505204603 55 278 2.0 4.0 0.00 0.00 0.00 87 1008.1
20260505204503 55 281 2.0 4.0 0.00 0.00 0.00 87 1008.1
20260505204403 55 282 2.0 4.0 0.00 0.00 0.00 87 1008.1
20260505204303 55 282 2.0 4.0 0.00 0.00 0.00 86 1008.1
20260505204203 55 281 2.0 4.0 0.00 0.00 0.00 86 1008.1
20260505204103 55 277 1.0 3.0 0.00 0.00 0.00 86 1008.1
20260505204003 55 272 2.0 4.0 0.00 0.00 0.00 85 1008.0
20260505203903 55 272 2.0 4.0 0.00 0.00 0.00 85 1008.0
20260505203804 55 273 2.0 4.0 0.00 0.00 0.00 86 1008.0
20260505203703 55 275 3.0 5.0 0.00 0.00 0.00 85 1008.1
20260505203603 55 280 4.0 6.0 0.00 0.00 0.00 85 1008.1
20260505203503 55 282 4.0 9.0 0.00 0.00 0.00 84 1008.1
20260505203404 56 284 5.0 9.0 0.00 0.00 0.00 84 1008.1
20260505203303 56 287 5.0 9.0 0.00 0.00 0.00 84 1008.1
20260505203203 56 287 5.0 9.0 0.00 0.00 0.00 84 1008.1
20260505203103 56 289 4.0 7.0 0.00 0.00 0.00 84 1008.0
20260505203003 56 290 4.0 7.0 0.00 0.00 0.00 83 1008.0
20260505202903 56 291 4.0 7.0 0.00 0.00 0.00 83 1008.0
20260505202803 56 291 4.0 6.0 0.00 0.00 0.00 83 1008.0
20260505202704 56 292 3.0 6.0 0.00 0.00 0.00 82 1008.0
20260505202603 56 294 4.0 6.0 0.00 0.00 0.00 83 1008.0
20260505202503 56 296 4.0 6.0 0.00 0.00 0.00 81 1007.9
20260505202404 56 298 4.0 6.0 0.00 0.00 0.00 80 1007.9
20260505202306 56 298 4.0 6.0 0.00 0.00 0.00 80 1007.9
20260505202203 56 298 3.0 6.0 0.00 0.00 0.00 80 1007.9
20260505202103 56 297 3.0 6.0 0.00 0.00 0.00 79 1007.9
20260505202004 56 298 3.0 6.0 0.00 0.00 0.00 78 1007.8
20260505201903 56 299 2.0 5.0 0.00 0.00 0.00 81 1007.8
20260505201803 57 297 3.0 5.0 0.00 0.00 0.00 79 1007.8
20260505201703 57 294 2.0 5.0 0.00 0.00 0.00 78 1007.8
20260505201603 57 290 2.0 5.0 0.00 0.00 0.00 80 1007.8
20260505201503 57 286 2.0 4.0 0.00 0.00 0.00 78 1007.8
20260505201403 57 285 2.0 4.0 0.00 0.00 0.00 78 1007.8
20260505201304 57 284 2.0 5.0 0.00 0.00 0.00 78 1007.8
20260505201203 57 282 2.0 5.0 0.00 0.00 0.00 79 1007.8
20260505201103 57 279 2.0 5.0 0.00 0.00 0.00 78 1007.8
20260505201004 57 276 2.0 5.0 0.00 0.00 0.00 78 1007.8
20260505200903 57 272 2.0 4.0 0.00 0.00 0.00 77 1007.8
20260505200803 57 269 2.0 4.0 0.00 0.00 0.00 77 1007.8
20260505200703 58 266 2.0 4.0 0.00 0.00 0.00 75 1007.8
20260505200604 58 263 3.0 6.0 0.00 0.00 0.00 74 1007.8
20260505200504 58 261 3.0 6.0 0.00 0.00 0.00 74 1007.6
20260505200403 58 257 3.0 6.0 0.00 0.00 0.00 73 1007.6
20260505200303 58 253 4.0 7.0 0.00 0.00 0.00 72 1007.6
20260505200203 58 249 4.0 9.0 0.00 0.00 0.00 72 1007.6
20260505200003 58 247 5.0 9.0 0.00 0.00 0.00 70 1007.5
20260505195903 58 246 6.0 11.0 0.00 0.00 0.00 70 1007.5
20260505195804 58 246 6.0 11.0 0.00 0.00 0.00 70 1007.5
20260505195703 59 246 5.0 11.0 0.00 0.00 0.00 69 1007.5
20260505195603 59 245 4.0 11.0 0.00 0.00 0.00 68 1007.5
20260505195503 59 246 3.0 10.0 0.00 0.00 0.00 67 1007.4
20260505195404 59 245 3.0 7.0 0.00 0.00 0.00 67 1007.4
20260505195305 59 247 3.0 7.0 0.00 0.00 0.00 67 1007.3
20260505195203 59 250 3.0 7.0 0.00 0.00 0.00 67 1007.3
20260505195104 59 254 3.0 7.0 0.00 0.00 0.00 67 1007.3
20260505195003 59 260 2.0 5.0 0.00 0.00 0.00 67 1007.2
20260505194903 59 265 2.0 4.0 0.00 0.00 0.00 66 1007.2
20260505194803 59 270 2.0 4.0 0.00 0.00 0.00 66 1007.2
20260505194703 59 275 2.0 4.0 0.00 0.00 0.00 66 1007.2
20260505194603 59 278 2.0 3.0 0.00 0.00 0.00 66 1007.1
20260505194503 59 279 2.0 3.0 0.00 0.00 0.00 66 1007.1
20260505194403 59 277 1.0 3.0 0.00 0.00 0.00 66 1007.1
20260505194304 59 271 1.0 3.0 0.00 0.00 0.00 65 1007.0
20260505194203 59 266 1.0 4.0 0.00 0.00 0.00 66 1007.0
20260505194103 59 261 2.0 4.0 0.00 0.00 0.00 66 1007.0
20260505194003 59 258 2.0 4.0 0.00 0.00 0.00 66 1006.9
20260505193903 59 254 2.0 4.0 0.00 0.00 0.00 66 1006.9
20260505193803 59 248 2.0 3.0 0.00 0.00 0.00 66 1006.9
20260505193703 59 240 2.0 3.0 0.00 0.00 0.00 66 1006.9
20260505193604 59 234 1.0 3.0 0.00 0.00 0.00 65 1006.9
20260505193503 59 229 1.0 3.0 0.00 0.00 0.00 66 1006.9
20260505193403 59 223 1.0 3.0 0.00 0.00 0.00 66 1006.8
20260505193303 59 211 1.0 4.0 0.00 0.00 0.00 66 1006.8
20260505193203 59 205 2.0 4.0 0.00 0.00 0.00 66 1006.8
20260505193103 59 203 2.0 4.0 0.00 0.00 0.00 66 1006.8
20260505193003 59 201 2.0 4.0 0.00 0.00 0.00 66 1006.8
20260505192903 59 196 2.0 4.0 0.00 0.00 0.00 66 1006.7
20260505192803 59 191 1.0 3.0 0.00 0.00 0.00 66 1006.7
20260505192703 59 185 2.0 3.0 0.00 0.00 0.00 67 1006.7
20260505192603 59 182 2.0 3.0 0.00 0.00 0.00 66 1006.7
20260505192503 59 177 2.0 4.0 0.00 0.00 0.00 66 1006.7
20260505192403 59 173 2.0 4.0 0.00 0.00 0.00 65 1006.6
20260505192305 59 171 1.0 4.0 0.00 0.00 0.00 65 1006.6
20260505192204 59 170 1.0 4.0 0.00 0.00 0.00 66 1006.6
20260505192103 59 158 1.0 2.0 0.00 0.00 0.00 68 1006.6
20260505192003 59 150 1.0 3.0 0.00 0.00 0.00 68 1006.6
20260505191903 58 151 2.0 3.0 0.00 0.00 0.00 68 1006.6
20260505191803 58 152 2.0 3.0 0.00 0.00 0.00 68 1006.6
20260505191703 58 153 2.0 3.0 0.00 0.00 0.00 69 1006.6
20260505191603 58 154 1.0 3.0 0.00 0.00 0.00 70 1006.6
20260505191503 58 158 0.0 2.0 0.00 0.00 0.00 70 1006.6
20260505191403 58 160 0.0 1.0 0.00 0.00 0.00 70 1006.6
20260505191303 58 154 0.0 1.0 0.00 0.00 0.00 70 1006.6
20260505191203 58 152 0.0 1.0 0.00 0.00 0.00 70 1006.7
20260505191103 58 147 0.0 2.0 0.00 0.00 0.00 71 1006.7
20260505191003 58 146 1.0 3.0 0.00 0.00 0.00 70 1006.7
20260505190903 58 144 1.0 3.0 0.00 0.00 0.00 70 1006.7
20260505190804 58 144 2.0 3.0 0.00 0.00 0.00 70 1006.7
20260505190703 58 144 2.0 3.0 0.00 0.00 0.00 70 1006.6
20260505190603 58 145 1.0 3.0 0.00 0.00 0.00 70 1006.6
20260505190503 58 148 1.0 2.0 0.00 0.00 0.00 70 1006.6
20260505190404 58 151 0.0 2.0 0.00 0.00 0.00 70 1006.6
20260505190303 58 156 0.0 1.0 0.00 0.00 0.00 70 1006.6
20260505190204 58 176 0.0 1.0 0.00 0.00 0.00 70 1006.5
20260505190103 58 182 0.0 1.0 0.00 0.00 0.00 70 1006.5
20260505190003 58 182 0.0 1.0 0.00 0.00 0.00 70 1006.5
20260505185903 58 182 0.0 1.0 0.00 0.00 0.00 70 1006.5
20260505185803 58 187 0.0 1.0 0.00 0.00 0.00 70 1006.4
20260505185703 58 0 0.0 0.0 0.00 0.00 0.00 69 1006.4
20260505185604 58 0 0.0 0.0 0.00 0.00 0.00 69 1006.5
20260505185503 58 0 0.0 0.0 0.00 0.00 0.00 69 1006.5
20260505185403 58 0 0.0 0.0 0.00 0.00 0.00 69 1006.4
20260505185305 58 0 0.0 0.0 0.00 0.00 0.00 69 1006.4
20260505185203 58 0 0.0 0.0 0.00 0.00 0.00 69 1006.4
20260505185103 59 0 0.0 0.0 0.00 0.00 0.00 69 1006.4
20260505185003 59 0 0.0 0.0 0.00 0.00 0.00 69 1006.4
20260505184903 59 0 0.0 0.0 0.00 0.00 0.00 69 1006.4
20260505184803 59 0 0.0 0.0 0.00 0.00 0.00 69 1006.4
20260505184703 59 0 0.0 0.0 0.00 0.00 0.00 68 1006.4
20260505184603 59 0 0.0 0.0 0.00 0.00 0.00 68 1006.4
20260505184504 59 253 0.0 2.0 0.00 0.00 0.00 67 1006.4
20260505184403 59 256 0.0 2.0 0.00 0.00 0.00 67 1006.4
20260505184303 59 257 0.0 2.0 0.00 0.00 0.00 67 1006.5
20260505184204 59 256 1.0 2.0 0.00 0.00 0.00 67 1006.5
20260505184103 59 255 1.0 3.0 0.00 0.00 0.00 67 1006.5
20260505184003 59 255 2.0 3.0 0.00 0.00 0.00 66 1006.5
20260505183904 60 255 2.0 3.0 0.00 0.00 0.00 66 1006.5
20260505183803 60 257 2.0 3.0 0.00 0.00 0.00 66 1006.5
20260505183703 59 261 2.0 3.0 0.00 0.00 0.00 66 1006.5
20260505183603 59 266 2.0 4.0 0.00 0.00 0.00 66 1006.5
20260505183504 60 267 2.0 4.0 0.00 0.00 0.00 66 1006.5
20260505183403 60 266 3.0 4.0 0.00 0.00 0.00 66 1006.5
20260505183303 60 265 2.0 4.0 0.00 0.00 0.00 66 1006.4
20260505183203 60 263 2.0 4.0 0.00 0.00 0.00 66 1006.5
20260505183104 60 265 2.0 4.0 0.00 0.00 0.00 66 1006.5
20260505183003 60 269 2.0 4.0 0.00 0.00 0.00 65 1006.4
20260505182903 60 272 2.0 4.0 0.00 0.00 0.00 65 1006.4
20260505182804 60 273 2.0 4.0 0.00 0.00 0.00 65 1006.4
20260505182703 60 273 2.0 4.0 0.00 0.00 0.00 65 1006.4
20260505182603 60 274 2.0 4.0 0.00 0.00 0.00 65 1006.4
20260505182503 60 276 2.0 4.0 0.00 0.00 0.00 65 1006.4
20260505182403 60 280 3.0 6.0 0.00 0.00 0.00 65 1006.5
20260505182305 60 283 3.0 6.0 0.00 0.00 0.00 65 1006.5
20260505182203 60 284 4.0 6.0 0.00 0.00 0.00 65 1006.5
20260505182104 60 283 4.0 7.0 0.00 0.00 0.00 65 1006.5
20260505182003 60 280 4.0 7.0 0.00 0.00 0.00 65 1006.5
20260505181903 60 278 4.0 10.0 0.00 0.00 0.00 64 1006.5
20260505181803 60 278 5.0 10.0 0.00 0.00 0.00 64 1006.5
20260505181704 60 280 5.0 10.0 0.00 0.00 0.00 64 1006.5
20260505181603 60 282 5.0 10.0 0.00 0.00 0.00 64 1006.5
20260505181503 60 284 5.0 10.0 0.00 0.00 0.00 63 1006.6
20260505181403 60 289 5.0 9.0 0.00 0.00 0.00 63 1006.6
20260505181303 60 297 5.0 9.0 0.00 0.00 0.00 63 1006.6
20260505181203 60 303 5.0 9.0 0.00 0.00 0.00 63 1006.6
20260505181103 60 308 5.0 9.0 0.00 0.00 0.00 63 1006.6
20260505181003 60 314 5.0 9.0 0.00 0.00 0.00 63 1006.6
20260505180904 60 321 4.0 8.0 0.00 0.00 0.00 64 1006.5
20260505180803 60 328 4.0 8.0 0.00 0.00 0.00 64 1006.4
20260505180703 60 332 4.0 8.0 0.00 0.00 0.00 64 1006.4
20260505180603 61 334 4.0 7.0 0.00 0.00 0.00 63 1006.2
20260505180503 61 335 4.0 7.0 0.00 0.00 0.00 63 1006.1
20260505180403 61 335 4.0 7.0 0.00 0.00 0.00 62 1006.0
20260505180303 61 333 3.0 7.0 0.00 0.00 0.00 62 1006.0
20260505180203 61 333 4.0 7.0 0.00 0.00 0.00 62 1006.0
20260505180103 61 336 4.0 9.0 0.00 0.00 0.00 62 1005.9
20260505180003 61 338 4.0 9.0 0.00 0.00 0.00 62 1005.9
20260505175903 61 339 5.0 10.0 0.00 0.00 0.00 61 1006.0
20260505175803 61 339 6.0 10.0 0.00 0.00 0.00 61 1006.0
20260505175703 61 337 6.0 10.0 0.00 0.00 0.00 61 1006.0
20260505175604 61 334 6.0 10.0 0.00 0.00 0.00 61 1006.0
20260505175503 61 331 5.0 10.0 0.00 0.00 0.00 61 1006.0
20260505175403 62 326 5.0 10.0 0.00 0.00 0.00 61 1006.0
20260505175305 61 320 4.0 8.0 0.00 0.00 0.00 61 1006.0
20260505175203 61 316 4.0 9.0 0.00 0.00 0.00 60 1006.0
20260505175103 61 313 5.0 11.0 0.00 0.00 0.00 60 1006.1
20260505175003 62 310 6.0 11.0 0.00 0.00 0.00 60 1006.1
20260505174903 62 308 7.0 11.0 0.00 0.00 0.00 59 1006.1
20260505174804 62 306 8.0 13.0 0.00 0.00 0.00 59 1006.1
20260505174703 62 304 8.0 13.0 0.00 0.00 0.00 58 1006.1
20260505174603 62 302 8.0 13.0 0.00 0.00 0.00 59 1006.1
20260505174504 62 301 7.0 13.0 0.00 0.00 0.00 59 1006.1
20260505174403 62 300 7.0 12.0 0.00 0.00 0.00 59 1006.0
20260505174303 62 300 7.0 12.0 0.00 0.00 0.00 59 1006.0
20260505174203 62 299 6.0 11.0 0.00 0.00 0.00 59 1006.0
20260505174104 62 299 7.0 17.0 0.00 0.00 0.00 59 1006.0
20260505174003 62 299 7.0 17.0 0.00 0.00 0.00 58 1006.0
20260505173903 62 299 7.0 17.0 0.00 0.00 0.00 58 1006.0
20260505173804 62 298 7.0 17.0 0.00 0.00 0.00 58 1005.9
20260505173703 62 297 6.0 12.0 0.00 0.00 0.00 58 1005.9
20260505173603 62 296 6.0 13.0 0.00 0.00 0.00 57 1005.9
20260505173503 62 297 7.0 14.0 0.00 0.00 0.00 57 1005.8
20260505173404 62 297 8.0 16.0 0.00 0.00 0.00 57 1005.8
20260505173303 62 297 8.0 16.0 0.00 0.00 0.00 57 1005.8
20260505173203 62 296 10.0 18.0 0.00 0.00 0.00 56 1005.8
20260505173103 63 295 10.0 18.0 0.00 0.00 0.00 56 1005.7
20260505173003 63 294 9.0 18.0 0.00 0.00 0.00 56 1005.7
20260505172903 63 290 9.0 18.0 0.00 0.00 0.00 56 1005.7
20260505172803 63 285 8.0 16.0 0.00 0.00 0.00 56 1005.7
20260505172703 63 279 9.0 16.0 0.00 0.00 0.00 56 1005.7
20260505172603 63 276 10.0 16.0 0.00 0.00 0.00 56 1005.7
20260505172503 63 276 11.0 19.0 0.00 0.00 0.00 56 1005.7
20260505172404 63 277 11.0 19.0 0.00 0.00 0.00 56 1005.6
20260505172305 63 280 12.0 21.0 0.00 0.00 0.00 56 1005.6
20260505172203 63 281 12.0 21.0 0.00 0.00 0.00 55 1005.6
20260505172104 63 281 11.0 21.0 0.00 0.00 0.00 55 1005.6
20260505172003 63 279 11.0 21.0 0.00 0.00 0.00 56 1005.6
20260505171903 63 279 11.0 16.0 0.00 0.00 0.00 56 1005.6
20260505171803 63 280 12.0 21.0 0.00 0.00 0.00 55 1005.5
20260505171704 63 281 12.0 24.0 0.00 0.00 0.00 55 1005.5
20260505171603 63 280 12.0 24.0 0.00 0.00 0.00 55 1005.5
20260505171503 64 278 12.0 24.0 0.00 0.00 0.00 55 1005.4
20260505171403 64 276 13.0 26.0 0.00 0.00 0.00 55 1005.4
20260505171303 64 275 13.0 26.0 0.00 0.00 0.00 54 1005.4
20260505171203 64 274 15.0 26.0 0.00 0.00 0.00 54 1005.4
20260505171103 64 274 16.0 26.0 0.00 0.00 0.00 54 1005.4
20260505171004 64 273 16.0 28.0 0.00 0.00 0.00 53 1005.4
20260505170903 65 272 16.0 28.0 0.00 0.00 0.00 52 1005.3
20260505170704 65 272 18.0 30.0 0.00 0.00 0.00 51 1005.2
20260505170603 65 271 17.0 30.0 0.00 0.00 0.00 49 1005.2
20260505170503 66 269 17.0 30.0 0.00 0.00 0.00 49 1005.2
20260505170403 66 265 17.0 30.0 0.00 0.00 0.00 47 1005.1
20260505170303 68 261 13.0 30.0 0.00 0.00 0.00 43 1005.1
20260505170203 69 257 9.0 27.0 0.00 0.00 0.00 41 1005.0
20260505170103 70 252 7.0 27.0 0.00 0.00 0.00 37 1005.0
20260505170003 70 244 4.0 8.0 0.00 0.00 0.00 34 1004.9
20260505165903 70 239 4.0 9.0 0.00 0.00 0.00 35 1004.7
20260505165803 70 236 6.0 10.0 0.00 0.00 0.00 34 1004.7
20260505165704 70 232 5.0 10.0 0.00 0.00 0.00 34 1004.7
20260505165603 71 231 5.0 10.0 0.00 0.00 0.00 34 1004.6
20260505165503 70 232 5.0 10.0 0.00 0.00 0.00 34 1004.6
20260505165404 71 233 4.0 9.0 0.00 0.00 0.00 34 1004.6
20260505165305 71 234 4.0 9.0 0.00 0.00 0.00 34 1004.6
20260505165203 71 236 5.0 9.0 0.00 0.00 0.00 34 1004.6
20260505165103 71 238 5.0 9.0 0.00 0.00 0.00 34 1004.6
20260505165003 71 239 5.0 9.0 0.00 0.00 0.00 34 1004.6
20260505164903 71 240 4.0 8.0 0.00 0.00 0.00 34 1004.6
20260505164803 71 241 4.0 8.0 0.00 0.00 0.00 34 1004.6
20260505164703 71 242 3.0 8.0 0.00 0.00 0.00 34 1004.6
20260505164603 71 244 3.0 8.0 0.00 0.00 0.00 34 1004.6
20260505164503 71 246 4.0 8.0 0.00 0.00 0.00 34 1004.6
20260505164403 71 248 4.0 7.0 0.00 0.00 0.00 34 1004.6
20260505164303 71 247 5.0 9.0 0.00 0.00 0.00 34 1004.6
20260505164203 71 246 5.0 10.0 0.00 0.00 0.00 34 1004.6
20260505164103 71 246 5.0 10.0 0.00 0.00 0.00 34 1004.6
20260505164004 71 245 5.0 10.0 0.00 0.00 0.00 33 1004.6
20260505163903 71 244 4.0 10.0 0.00 0.00 0.00 34 1004.6
20260505163803 71 243 4.0 8.0 0.00 0.00 0.00 33 1004.7
20260505163704 71 242 4.0 8.0 0.00 0.00 0.00 34 1004.7
20260505163603 71 241 5.0 10.0 0.00 0.00 0.00 34 1004.7
20260505163503 71 240 4.0 10.0 0.00 0.00 0.00 34 1004.7
20260505163403 71 239 4.0 10.0 0.00 0.00 0.00 34 1004.7
20260505163304 71 238 4.0 10.0 0.00 0.00 0.00 33 1004.7
20260505163203 71 237 3.0 5.0 0.00 0.00 0.00 33 1004.7
20260505163103 71 237 3.0 5.0 0.00 0.00 0.00 33 1004.7
20260505163004 71 236 3.0 5.0 0.00 0.00 0.00 33 1004.7
20260505162903 71 234 2.0 5.0 0.00 0.00 0.00 33 1004.7
20260505162803 71 229 3.0 9.0 0.00 0.00 0.00 33 1004.7
20260505162703 71 226 3.0 9.0 0.00 0.00 0.00 32 1004.7
20260505162603 71 225 3.0 9.0 0.00 0.00 0.00 33 1004.7
20260505162503 71 225 3.0 9.0 0.00 0.00 0.00 33 1004.7
20260505162403 72 226 3.0 7.0 0.00 0.00 0.00 33 1004.7
20260505162306 72 228 3.0 8.0 0.00 0.00 0.00 33 1004.7
20260505162203 72 228 4.0 9.0 0.00 0.00 0.00 32 1004.9
20260505162103 72 229 5.0 9.0 0.00 0.00 0.00 32 1004.9
20260505162004 72 230 5.0 9.0 0.00 0.00 0.00 32 1004.9
20260505161903 72 231 4.0 9.0 0.00 0.00 0.00 32 1004.9
20260505161803 72 234 4.0 10.0 0.00 0.00 0.00 32 1004.9
20260505161703 72 237 4.0 10.0 0.00 0.00 0.00 32 1004.9
20260505161604 72 240 5.0 12.0 0.00 0.00 0.00 32 1004.9
20260505161503 72 243 6.0 12.0 0.00 0.00 0.00 32 1004.9
20260505161403 72 247 6.0 12.0 0.00 0.00 0.00 32 1004.9
20260505161303 72 250 5.0 12.0 0.00 0.00 0.00 31 1004.9
20260505161203 72 255 5.0 12.0 0.00 0.00 0.00 31 1005.0
20260505161103 72 258 4.0 12.0 0.00 0.00 0.00 31 1005.0
20260505161003 72 260 3.0 12.0 0.00 0.00 0.00 32 1005.0
20260505160903 72 262 3.0 12.0 0.00 0.00 0.00 33 1005.0
20260505160803 72 260 2.0 5.0 0.00 0.00 0.00 31 1005.0
20260505160703 73 259 2.0 5.0 0.00 0.00 0.00 33 1005.0
20260505160604 72 259 3.0 6.0 0.00 0.00 0.00 33 1005.0
20260505160503 72 261 4.0 6.0 0.00 0.00 0.00 32 1005.0
20260505160403 72 263 4.0 6.0 0.00 0.00 0.00 32 1005.0
20260505160303 72 265 4.0 8.0 0.00 0.00 0.00 32 1005.0
20260505160203 72 268 4.0 9.0 0.00 0.00 0.00 33 1005.0
20260505153303 72 305 1.0 3.0 0.00 0.00 0.00 35 1005.0
20260505153203 72 309 1.0 3.0 0.00 0.00 0.00 36 1005.0
20260505153104 72 312 1.0 3.0 0.00 0.00 0.00 35 1005.0
20260505153003 72 318 1.0 3.0 0.00 0.00 0.00 36 1005.0
20260505152903 72 328 0.0 2.0 0.00 0.00 0.00 38 1005.0
20260505152804 72 337 0.0 1.0 0.00 0.00 0.00 40 1005.0
20260505152703 73 350 0.0 2.0 0.00 0.00 0.00 39 1005.0
20260505152604 72 354 1.0 2.0 0.00 0.00 0.00 35 1005.0
20260505152504 72 357 1.0 2.0 0.00 0.00 0.00 36 1005.0
20260505152403 73 358 1.0 2.0 0.00 0.00 0.00 35 1005.1
20260505152305 72 1 2.0 3.0 0.00 0.00 0.00 36 1005.1
20260505152203 72 4 2.0 3.0 0.00 0.00 0.00 39 1005.1
20260505152103 72 8 2.0 3.0 0.00 0.00 0.00 39 1005.1
20260505152003 73 13 2.0 3.0 0.00 0.00 0.00 35 1005.1
20260505151903 73 18 2.0 3.0 0.00 0.00 0.00 34 1005.1
20260505151803 73 22 1.0 3.0 0.00 0.00 0.00 34 1005.1
20260505151703 73 27 1.0 3.0 0.00 0.00 0.00 34 1005.1
20260505151603 73 44 0.0 2.0 0.00 0.00 0.00 34 1005.1
20260505151504 73 47 0.0 2.0 0.00 0.00 0.00 36 1005.1
20260505151403 73 47 0.0 2.0 0.00 0.00 0.00 35 1005.2
20260505151303 73 45 0.0 2.0 0.00 0.00 0.00 34 1005.2
20260505151203 73 42 0.0 1.0 0.00 0.00 0.00 34 1005.2
20260505151103 73 36 0.0 1.0 0.00 0.00 0.00 34 1005.2
20260505151003 73 26 0.0 1.0 0.00 0.00 0.00 34 1005.2
20260505150903 73 17 0.0 2.0 0.00 0.00 0.00 33 1005.2
20260505150803 74 17 0.0 2.0 0.00 0.00 0.00 34 1005.2
20260505150703 74 13 0.0 2.0 0.00 0.00 0.00 34 1005.2
20260505150603 74 6 1.0 2.0 0.00 0.00 0.00 34 1005.2
20260505150504 74 3 1.0 3.0 0.00 0.00 0.00 35 1005.2
20260505150403 74 2 2.0 3.0 0.00 0.00 0.00 35 1005.2
20260505150303 74 1 2.0 3.0 0.00 0.00 0.00 34 1005.2
20260505150203 73 0 1.0 3.0 0.00 0.00 0.00 34 1005.2
20260505140603 73 0 0.0 0.0 0.00 0.00 0.00 37 1005.9
20260505140503 72 0 0.0 0.0 0.00 0.00 0.00 39 1005.9
20260505140403 73 0 0.0 0.0 0.00 0.00 0.00 38 1005.9
20260505140304 72 0 0.0 0.0 0.00 0.00 0.00 36 1005.9
20260505140203 72 246 0.0 1.0 0.00 0.00 0.00 36 1005.9
20260505130303 73 283 2.0 4.0 0.00 0.00 0.00 33 1006.5
20260505130203 72 294 2.0 4.0 0.00 0.00 0.00 34 1006.5
20260505130103 72 303 2.0 5.0 0.00 0.00 0.00 36 1006.5
20260505125003 73 255 1.0 4.0 0.00 0.00 0.00 31 1006.7
20260505124903 73 250 0.0 2.0 0.00 0.00 0.00 31 1006.7
20260505124803 73 254 1.0 2.0 0.00 0.00 0.00 33 1006.7
20260505124704 72 258 1.0 2.0 0.00 0.00 0.00 33 1006.7
20260505124603 72 261 1.0 2.0 0.00 0.00 0.00 32 1006.7
20260505124503 72 265 1.0 2.0 0.00 0.00 0.00 32 1006.7
20260505124403 72 273 1.0 2.0 0.00 0.00 0.00 32 1006.7
20260505124303 72 280 0.0 2.0 0.00 0.00 0.00 32 1006.7
20260505124203 72 290 1.0 5.0 0.00 0.00 0.00 31 1006.7
20260505124103 73 293 2.0 5.0 0.00 0.00 0.00 33 1006.7
20260505124004 72 296 3.0 7.0 0.00 0.00 0.00 33 1006.7
20260505123903 72 296 4.0 7.0 0.00 0.00 0.00 33 1006.7
20260505123803 72 294 5.0 8.0 0.00 0.00 0.00 34 1006.7
20260505123703 72 294 6.0 8.0 0.00 0.00 0.00 35 1006.7
20260505123604 72 292 6.0 8.0 0.00 0.00 0.00 33 1006.8
20260505123503 72 291 5.0 8.0 0.00 0.00 0.00 33 1006.8
20260505123403 72 292 5.0 8.0 0.00 0.00 0.00 33 1006.8
20260505123303 72 291 4.0 7.0 0.00 0.00 0.00 34 1006.7
20260505123203 72 291 4.0 7.0 0.00 0.00 0.00 33 1006.7
20260505123103 72 291 4.0 7.0 0.00 0.00 0.00 33 1006.7
20260505123003 72 291 4.0 7.0 0.00 0.00 0.00 32 1006.7
20260505122904 72 290 4.0 6.0 0.00 0.00 0.00 32 1006.7
20260505122803 72 290 4.0 6.0 0.00 0.00 0.00 32 1006.7
20260505122703 72 290 4.0 6.0 0.00 0.00 0.00 32 1006.7
20260505122603 73 295 5.0 10.0 0.00 0.00 0.00 31 1006.7
20260505122504 73 302 6.0 12.0 0.00 0.00 0.00 33 1006.7
20260505122403 72 304 7.0 13.0 0.00 0.00 0.00 33 1006.7
20260505122305 72 305 7.0 13.0 0.00 0.00 0.00 32 1006.7
20260505122204 72 306 7.0 13.0 0.00 0.00 0.00 32 1006.7
20260505122103 72 305 6.0 13.0 0.00 0.00 0.00 33 1006.7
20260505122003 72 305 5.0 11.0 0.00 0.00 0.00 32 1006.7
20260505121903 72 305 5.0 11.0 0.00 0.00 0.00 31 1006.8
20260505121804 72 304 5.0 11.0 0.00 0.00 0.00 31 1006.7
20260505121703 73 303 4.0 11.0 0.00 0.00 0.00 31 1006.8
20260505121603 73 300 3.0 6.0 0.00 0.00 0.00 32 1006.8
20260505121503 73 299 3.0 6.0 0.00 0.00 0.00 30 1006.8
20260505121403 73 301 3.0 7.0 0.00 0.00 0.00 30 1006.8
20260505121303 73 302 4.0 7.0 0.00 0.00 0.00 30 1006.8
20260505121203 73 305 4.0 7.0 0.00 0.00 0.00 30 1006.8
20260505121104 74 307 3.0 7.0 0.00 0.00 0.00 30 1006.8
20260505121003 74 306 3.0 7.0 0.00 0.00 0.00 30 1006.8
20260505120903 74 302 3.0 7.0 0.00 0.00 0.00 30 1006.8
20260505120803 74 298 3.0 6.0 0.00 0.00 0.00 31 1006.8
20260505120704 73 297 4.0 7.0 0.00 0.00 0.00 30 1006.9
20260505120603 74 297 4.0 7.0 0.00 0.00 0.00 29 1006.9
20260505120503 75 297 4.0 7.0 0.00 0.00 0.00 30 1006.9
20260505120403 75 296 5.0 9.0 0.00 0.00 0.00 31 1006.9
20260505120303 74 294 5.0 9.0 0.00 0.00 0.00 31 1006.9
20260505120203 74 295 6.0 9.0 0.00 0.00 0.00 31 1006.9
20260505120103 73 297 6.0 9.0 0.00 0.00 0.00 30 1006.9
20260505120004 74 300 6.0 9.0 0.00 0.00 0.00 30 1006.9
20260505115903 74 303 5.0 9.0 0.00 0.00 0.00 30 1006.9
20260505115803 75 305 5.0 8.0 0.00 0.00 0.00 30 1006.9
20260505115703 75 303 5.0 9.0 0.00 0.00 0.00 30 1006.9
20260505115603 74 301 5.0 9.0 0.00 0.00 0.00 32 1006.9
20260505115504 73 298 6.0 9.0 0.00 0.00 0.00 30 1006.9
20260505115403 73 297 6.0 9.0 0.00 0.00 0.00 29 1007.0
20260505115305 73 299 6.0 11.0 0.00 0.00 0.00 29 1007.0
20260505115203 74 301 6.0 11.0 0.00 0.00 0.00 30 1007.0
20260505115103 74 304 6.0 11.0 0.00 0.00 0.00 29 1007.0
20260505115003 75 306 6.0 11.0 0.00 0.00 0.00 29 1007.0
20260505114903 75 306 6.0 11.0 0.00 0.00 0.00 29 1007.0
20260505114803 74 304 6.0 10.0 0.00 0.00 0.00 31 1007.0
20260505114703 74 302 5.0 9.0 0.00 0.00 0.00 29 1007.0
20260505114603 74 299 6.0 9.0 0.00 0.00 0.00 29 1007.0
20260505114503 74 297 5.0 9.0 0.00 0.00 0.00 29 1007.1
20260505114403 73 296 4.0 7.0 0.00 0.00 0.00 29 1007.0
20260505114303 74 295 4.0 7.0 0.00 0.00 0.00 29 1007.0
20260505114203 73 296 3.0 7.0 0.00 0.00 0.00 28 1007.1
20260505114103 74 299 3.0 7.0 0.00 0.00 0.00 28 1007.1
20260505114003 75 304 3.0 7.0 0.00 0.00 0.00 30 1007.1
20260505113903 74 309 3.0 7.0 0.00 0.00 0.00 31 1007.0
20260505113803 74 313 2.0 5.0 0.00 0.00 0.00 30 1007.1
20260505113703 74 316 2.0 5.0 0.00 0.00 0.00 31 1007.1
20260505113603 74 318 2.0 5.0 0.00 0.00 0.00 30 1007.1
20260505113503 74 317 3.0 5.0 0.00 0.00 0.00 30 1007.1
20260505113404 74 315 3.0 5.0 0.00 0.00 0.00 30 1007.1
20260505113303 73 309 2.0 4.0 0.00 0.00 0.00 30 1007.1
20260505113203 73 302 3.0 4.0 0.00 0.00 0.00 31 1007.1
20260505113103 72 295 3.0 5.0 0.00 0.00 0.00 30 1007.2
20260505113004 72 290 3.0 5.0 0.00 0.00 0.00 32 1007.2
20260505112903 72 283 3.0 5.0 0.00 0.00 0.00 32 1007.2
20260505112803 71 278 3.0 5.0 0.00 0.00 0.00 32 1007.2
20260505112704 71 270 2.0 5.0 0.00 0.00 0.00 32 1007.2
20260505112603 71 262 3.0 5.0 0.00 0.00 0.00 32 1007.2
20260505112503 71 253 3.0 5.0 0.00 0.00 0.00 32 1007.3
20260505112403 71 249 3.0 5.0 0.00 0.00 0.00 32 1007.3
20260505112305 72 245 3.0 5.0 0.00 0.00 0.00 31 1007.3
20260505112203 72 243 3.0 6.0 0.00 0.00 0.00 31 1007.3
20260505112103 72 243 2.0 6.0 0.00 0.00 0.00 32 1007.3
20260505112004 72 248 2.0 6.0 0.00 0.00 0.00 31 1007.3
20260505111903 72 254 2.0 6.0 0.00 0.00 0.00 31 1007.3
20260505111803 72 263 2.0 5.0 0.00 0.00 0.00 32 1007.3
20260505111703 72 269 2.0 5.0 0.00 0.00 0.00 31 1007.3
20260505111604 73 272 2.0 5.0 0.00 0.00 0.00 31 1007.3
20260505111503 73 272 3.0 8.0 0.00 0.00 0.00 32 1007.3
20260505111403 72 269 4.0 8.0 0.00 0.00 0.00 33 1007.3
20260505111303 72 265 4.0 8.0 0.00 0.00 0.00 34 1007.3
20260505111203 72 261 4.0 8.0 0.00 0.00 0.00 32 1007.3
20260505111103 73 255 4.0 7.0 0.00 0.00 0.00 33 1007.3
20260505111003 73 251 4.0 7.0 0.00 0.00 0.00 34 1007.3
20260505110904 73 247 3.0 6.0 0.00 0.00 0.00 35 1007.3
20260505110803 72 243 3.0 6.0 0.00 0.00 0.00 33 1007.4
20260505110703 72 244 4.0 11.0 0.00 0.00 0.00 32 1007.4
20260505110603 73 247 4.0 11.0 0.00 0.00 0.00 32 1007.4
20260505110504 73 251 5.0 11.0 0.00 0.00 0.00 33 1007.4
20260505110403 73 256 5.0 11.0 0.00 0.00 0.00 31 1007.4
20260505110303 74 261 5.0 8.0 0.00 0.00 0.00 32 1007.4
20260505110203 74 268 5.0 8.0 0.00 0.00 0.00 32 1007.4
20260505102203 71 292 4.0 7.0 0.00 0.00 0.00 38 1008.0
20260505102103 70 293 4.0 7.0 0.00 0.00 0.00 36 1008.0
20260505102004 71 292 5.0 8.0 0.00 0.00 0.00 36 1008.1
20260505101903 71 290 6.0 8.0 0.00 0.00 0.00 36 1008.0
20260505101803 71 288 5.0 8.0 0.00 0.00 0.00 37 1008.1
20260505101704 72 287 4.0 8.0 0.00 0.00 0.00 37 1008.1
20260505101604 72 284 2.0 8.0 0.00 0.00 0.00 37 1008.0
20260505101503 72 283 1.0 4.0 0.00 0.00 0.00 37 1008.0
20260505101403 71 284 1.0 4.0 0.00 0.00 0.00 38 1008.1
20260505101303 71 283 1.0 5.0 0.00 0.00 0.00 38 1008.1
20260505101204 70 287 2.0 5.0 0.00 0.00 0.00 37 1008.1
20260505101103 70 288 2.0 5.0 0.00 0.00 0.00 38 1008.1
20260505101003 71 288 2.0 5.0 0.00 0.00 0.00 37 1008.1
20260505100903 71 290 3.0 5.0 0.00 0.00 0.00 37 1008.1
20260505100803 72 290 2.0 5.0 0.00 0.00 0.00 38 1008.1
20260505100703 72 289 3.0 6.0 0.00 0.00 0.00 39 1008.1
20260505100603 71 288 4.0 8.0 0.00 0.00 0.00 37 1008.2
20260505100504 71 288 3.0 8.0 0.00 0.00 0.00 39 1008.2
20260505100403 70 288 4.0 8.0 0.00 0.00 0.00 38 1008.2
20260505100303 71 288 3.0 8.0 0.00 0.00 0.00 38 1008.2
20260505100203 71 292 2.0 7.0 0.00 0.00 0.00 39 1008.2
20260505100003 70 300 4.0 10.0 0.00 0.00 0.00 37 1008.3
20260505095903 70 300 4.0 10.0 0.00 0.00 0.00 36 1008.3
20260505095804 71 300 5.0 10.0 0.00 0.00 0.00 38 1008.3
20260505095703 71 300 4.0 10.0 0.00 0.00 0.00 37 1008.3
20260505095603 71 299 3.0 7.0 0.00 0.00 0.00 38 1008.3
20260505095504 71 294 4.0 7.0 0.00 0.00 0.00 38 1008.3
20260505095403 71 290 4.0 9.0 0.00 0.00 0.00 40 1008.3
20260505095305 70 286 5.0 9.0 0.00 0.00 0.00 37 1008.3
20260505095203 70 283 6.0 10.0 0.00 0.00 0.00 36 1008.3
20260505095103 71 278 6.0 10.0 0.00 0.00 0.00 36 1008.3
20260505095004 70 274 7.0 11.0 0.00 0.00 0.00 38 1008.3
20260505094903 70 270 6.0 11.0 0.00 0.00 0.00 37 1008.3
20260505094803 71 267 5.0 11.0 0.00 0.00 0.00 37 1008.3
20260505094703 71 266 4.0 11.0 0.00 0.00 0.00 38 1008.3
20260505094604 71 267 3.0 8.0 0.00 0.00 0.00 38 1008.3
20260505094503 71 270 4.0 7.0 0.00 0.00 0.00 37 1008.3
20260505094403 70 272 4.0 7.0 0.00 0.00 0.00 37 1008.3
20260505094303 70 275 3.0 7.0 0.00 0.00 0.00 38 1008.3
20260505094203 71 279 3.0 7.0 0.00 0.00 0.00 38 1008.3
20260505094103 71 280 3.0 6.0 0.00 0.00 0.00 38 1008.3
20260505094003 71 281 4.0 7.0 0.00 0.00 0.00 37 1008.3
20260505093904 70 284 5.0 8.0 0.00 0.00 0.00 34 1008.3
20260505093803 72 287 5.0 9.0 0.00 0.00 0.00 35 1008.4
20260505093703 71 291 6.0 9.0 0.00 0.00 0.00 36 1008.4
20260505093603 71 295 6.0 10.0 0.00 0.00 0.00 35 1008.3
20260505093504 72 297 6.0 10.0 0.00 0.00 0.00 35 1008.3
20260505093403 72 298 5.0 10.0 0.00 0.00 0.00 36 1008.3
20260505093303 72 300 4.0 10.0 0.00 0.00 0.00 38 1008.3
20260505093203 71 298 3.0 9.0 0.00 0.00 0.00 37 1008.3
20260505093103 71 293 3.0 6.0 0.00 0.00 0.00 38 1008.4
20260505093003 70 290 4.0 8.0 0.00 0.00 0.00 37 1008.4
20260505092903 69 288 6.0 9.0 0.00 0.00 0.00 37 1008.4
20260505092804 69 286 6.0 9.0 0.00 0.00 0.00 37 1008.4
20260505092703 70 285 6.0 9.0 0.00 0.00 0.00 37 1008.4
20260505092603 71 284 5.0 9.0 0.00 0.00 0.00 39 1008.4
20260505092503 70 283 4.0 9.0 0.00 0.00 0.00 40 1008.4
20260505092404 70 284 4.0 7.0 0.00 0.00 0.00 41 1008.4
20260505092305 70 283 4.0 7.0 0.00 0.00 0.00 41 1008.4
20260505092203 70 282 4.0 7.0 0.00 0.00 0.00 40 1008.4
20260505092103 71 281 4.0 7.0 0.00 0.00 0.00 41 1008.5
20260505092004 71 279 4.0 7.0 0.00 0.00 0.00 39 1008.5
20260505091903 71 277 4.0 6.0 0.00 0.00 0.00 40 1008.5
20260505091803 71 274 4.0 7.0 0.00 0.00 0.00 41 1008.5
20260505091703 71 270 4.0 7.0 0.00 0.00 0.00 42 1008.5
20260505091603 70 266 4.0 7.0 0.00 0.00 0.00 41 1008.5
20260505091503 71 263 4.0 7.0 0.00 0.00 0.00 40 1008.5
20260505091403 70 260 2.0 6.0 0.00 0.00 0.00 41 1008.5
20260505091304 70 257 2.0 6.0 0.00 0.00 0.00 41 1008.5
20260505091203 70 254 1.0 5.0 0.00 0.00 0.00 40 1008.5
20260505091103 71 260 1.0 4.0 0.00 0.00 0.00 41 1008.5
20260505091003 71 265 2.0 4.0 0.00 0.00 0.00 40 1008.5
20260505090903 70 268 2.0 4.0 0.00 0.00 0.00 40 1008.5
20260505090803 71 272 2.0 4.0 0.00 0.00 0.00 40 1008.5
20260505090703 71 276 1.0 4.0 0.00 0.00 0.00 40 1008.5
20260505090603 71 287 1.0 3.0 0.00 0.00 0.00 42 1008.5
20260505090503 70 290 1.0 4.0 0.00 0.00 0.00 42 1008.6
20260505090403 69 288 2.0 4.0 0.00 0.00 0.00 41 1008.6
20260505090303 69 285 2.0 4.0 0.00 0.00 0.00 41 1008.6
20260505090204 69 280 3.0 6.0 0.00 0.00 0.00 42 1008.6
20260505090003 69 268 4.0 6.0 0.00 0.00 0.00 43 1008.6
20260505085903 69 265 3.0 6.0 0.00 0.00 0.00 42 1008.6
20260505085803 69 260 2.0 5.0 0.00 0.00 0.00 42 1008.6
20260505085703 69 252 2.0 5.0 0.00 0.00 0.00 41 1008.6
20260505085603 69 242 2.0 4.0 0.00 0.00 0.00 41 1008.6
20260505085504 69 235 2.0 4.0 0.00 0.00 0.00 41 1008.6
20260505085403 70 231 2.0 4.0 0.00 0.00 0.00 41 1008.6
20260505085304 70 227 2.0 4.0 0.00 0.00 0.00 41 1008.6
20260505085204 70 226 2.0 4.0 0.00 0.00 0.00 43 1008.6
20260505085103 69 227 2.0 5.0 0.00 0.00 0.00 44 1008.6
20260505085004 69 227 3.0 6.0 0.00 0.00 0.00 44 1008.6
20260505084903 69 226 3.0 6.0 0.00 0.00 0.00 42 1008.6
20260505084803 69 224 3.0 6.0 0.00 0.00 0.00 42 1008.6
20260505084703 69 217 2.0 6.0 0.00 0.00 0.00 43 1008.6
20260505084603 69 211 2.0 4.0 0.00 0.00 0.00 43 1008.6
20260505084503 70 209 1.0 3.0 0.00 0.00 0.00 44 1008.6
20260505084403 69 201 2.0 3.0 0.00 0.00 0.00 45 1008.6
20260505084304 69 189 2.0 5.0 0.00 0.00 0.00 45 1008.6
20260505084203 69 183 2.0 5.0 0.00 0.00 0.00 46 1008.6
20260505084103 69 180 3.0 5.0 0.00 0.00 0.00 45 1008.6
20260505084003 68 174 2.0 5.0 0.00 0.00 0.00 45 1008.6
20260505083903 68 167 2.0 4.0 0.00 0.00 0.00 44 1008.6
20260505083803 68 163 1.0 4.0 0.00 0.00 0.00 44 1008.6
20260505083703 68 157 1.0 3.0 0.00 0.00 0.00 44 1008.6
20260505083603 69 151 1.0 2.0 0.00 0.00 0.00 43 1008.6
20260505083503 69 145 0.0 2.0 0.00 0.00 0.00 44 1008.6
20260505083403 69 151 0.0 2.0 0.00 0.00 0.00 43 1008.6
20260505083304 69 159 1.0 2.0 0.00 0.00 0.00 44 1008.7
20260505083203 69 167 1.0 2.0 0.00 0.00 0.00 44 1008.7
20260505083103 70 169 1.0 2.0 0.00 0.00 0.00 43 1008.7
20260505083003 70 175 1.0 2.0 0.00 0.00 0.00 42 1008.7
20260505082904 69 178 1.0 2.0 0.00 0.00 0.00 43 1008.7
20260505082803 69 184 0.0 1.0 0.00 0.00 0.00 44 1008.7
20260505082703 69 186 0.0 1.0 0.00 0.00 0.00 43 1008.7
20260505082603 69 0 0.0 0.0 0.00 0.00 0.00 44 1008.7
20260505082503 68 214 0.0 1.0 0.00 0.00 0.00 44 1008.7
20260505082403 68 218 0.0 2.0 0.00 0.00 0.00 44 1008.7
20260505082304 68 219 1.0 2.0 0.00 0.00 0.00 43 1008.7
20260505082204 68 220 1.0 2.0 0.00 0.00 0.00 43 1008.7
20260505082103 68 222 1.0 2.0 0.00 0.00 0.00 43 1008.8
20260505082003 68 225 1.0 2.0 0.00 0.00 0.00 43 1008.8
20260505081903 68 230 0.0 2.0 0.00 0.00 0.00 44 1008.8
20260505081804 68 235 0.0 2.0 0.00 0.00 0.00 45 1008.8
20260505081703 68 236 0.0 2.0 0.00 0.00 0.00 46 1008.8
20260505081603 68 236 0.0 2.0 0.00 0.00 0.00 46 1008.8
20260505081503 68 228 1.0 3.0 0.00 0.00 0.00 47 1008.8
20260505081403 67 224 1.0 3.0 0.00 0.00 0.00 46 1008.8
20260505081303 67 217 2.0 4.0 0.00 0.00 0.00 46 1008.9
20260505081203 67 212 2.0 4.0 0.00 0.00 0.00 46 1008.9
20260505081104 67 204 2.0 4.0 0.00 0.00 0.00 47 1008.9
20260505081003 67 198 3.0 4.0 0.00 0.00 0.00 47 1008.9
20260505080903 67 193 2.0 4.0 0.00 0.00 0.00 48 1008.9
20260505080803 67 190 2.0 4.0 0.00 0.00 0.00 49 1008.9
20260505080704 67 182 2.0 4.0 0.00 0.00 0.00 50 1008.9
20260505080603 67 170 2.0 4.0 0.00 0.00 0.00 49 1008.9
20260505080504 66 166 1.0 4.0 0.00 0.00 0.00 49 1008.9
20260505080403 66 162 2.0 4.0 0.00 0.00 0.00 48 1008.9
20260505080303 66 156 1.0 4.0 0.00 0.00 0.00 48 1008.9
20260505080203 67 143 1.0 3.0 0.00 0.00 0.00 48 1008.9
20260505080103 67 135 1.0 3.0 0.00 0.00 0.00 49 1008.9
20260505080003 67 128 2.0 3.0 0.00 0.00 0.00 49 1008.9
20260505075903 66 126 2.0 3.0 0.00 0.00 0.00 49 1008.9
20260505075804 66 119 2.0 3.0 0.00 0.00 0.00 50 1008.9
20260505075703 66 110 1.0 3.0 0.00 0.00 0.00 49 1008.9
20260505075603 66 102 1.0 3.0 0.00 0.00 0.00 50 1008.9
20260505075504 67 96 1.0 3.0 0.00 0.00 0.00 51 1009.0
20260505075404 67 92 1.0 3.0 0.00 0.00 0.00 49 1009.0
20260505075304 67 87 0.0 2.0 0.00 0.00 0.00 50 1009.0
20260505075203 67 87 0.0 2.0 0.00 0.00 0.00 50 1009.0
20260505075104 67 89 0.0 2.0 0.00 0.00 0.00 49 1009.0
20260505075004 67 90 0.0 1.0 0.00 0.00 0.00 50 1009.0
20260505074904 67 90 0.0 1.0 0.00 0.00 0.00 49 1009.0
20260505074803 67 0 0.0 0.0 0.00 0.00 0.00 50 1009.0
20260505074703 67 0 0.0 0.0 0.00 0.00 0.00 49 1009.0
20260505074604 67 0 0.0 0.0 0.00 0.00 0.00 50 1009.0
20260505074504 67 79 0.0 0.0 0.00 0.00 0.00 50 1009.0
20260505074403 67 79 0.0 0.0 0.00 0.00 0.00 50 1009.0
20260505074303 66 79 0.0 0.0 0.00 0.00 0.00 50 1009.0
20260505074203 65 74 0.0 1.0 0.00 0.00 0.00 52 1009.0
20260505074104 65 68 0.0 1.0 0.00 0.00 0.00 51 1009.0
20260505074003 65 69 0.0 1.0 0.00 0.00 0.00 51 1009.0
20260505073903 65 69 0.0 2.0 0.00 0.00 0.00 51 1009.0
20260505073803 65 71 1.0 3.0 0.00 0.00 0.00 52 1009.0
20260505073703 65 75 1.0 3.0 0.00 0.00 0.00 51 1009.0
20260505073603 65 76 2.0 3.0 0.00 0.00 0.00 52 1009.0
20260505073503 65 79 1.0 3.0 0.00 0.00 0.00 51 1009.0
20260505073403 64 83 1.0 3.0 0.00 0.00 0.00 51 1009.0
20260505073303 65 90 0.0 2.0 0.00 0.00 0.00 51 1009.0
20260505073203 65 92 0.0 2.0 0.00 0.00 0.00 51 1009.0
20260505073103 64 93 0.0 2.0 0.00 0.00 0.00 51 1009.0
20260505073004 65 90 0.0 2.0 0.00 0.00 0.00 51 1009.0
20260505072903 65 85 0.0 2.0 0.00 0.00 0.00 50 1009.0
20260505072803 65 81 0.0 2.0 0.00 0.00 0.00 51 1009.0
20260505072703 64 78 1.0 2.0 0.00 0.00 0.00 52 1009.0
20260505072604 65 78 1.0 2.0 0.00 0.00 0.00 52 1009.0
20260505072503 65 79 1.0 2.0 0.00 0.00 0.00 52 1009.0
20260505072403 65 80 1.0 2.0 0.00 0.00 0.00 50 1009.2
20260505072305 65 79 1.0 2.0 0.00 0.00 0.00 51 1009.2
20260505072204 65 76 1.0 3.0 0.00 0.00 0.00 50 1009.2
20260505072103 65 74 1.0 4.0 0.00 0.00 0.00 51 1009.2
20260505072003 64 74 1.0 4.0 0.00 0.00 0.00 52 1009.2
20260505071903 64 73 2.0 4.0 0.00 0.00 0.00 51 1009.2
20260505071804 64 74 2.0 4.0 0.00 0.00 0.00 51 1009.2
20260505071703 64 76 2.0 4.0 0.00 0.00 0.00 51 1009.2
20260505071603 64 78 2.0 4.0 0.00 0.00 0.00 52 1009.2
20260505071503 64 81 1.0 3.0 0.00 0.00 0.00 51 1009.2
20260505071403 64 84 1.0 3.0 0.00 0.00 0.00 50 1009.2
20260505071303 65 88 0.0 2.0 0.00 0.00 0.00 49 1009.2
20260505071203 65 88 0.0 1.0 0.00 0.00 0.00 50 1009.2
20260505071104 65 87 0.0 1.0 0.00 0.00 0.00 50 1009.2
20260505071003 64 0 0.0 1.0 0.00 0.00 0.00 49 1009.2
20260505070903 64 86 0.0 1.0 0.00 0.00 0.00 48 1009.2
20260505070803 64 86 0.0 1.0 0.00 0.00 0.00 49 1009.3
20260505070703 64 86 0.0 1.0 0.00 0.00 0.00 49 1009.3
20260505070603 64 82 0.0 1.0 0.00 0.00 0.00 50 1009.3
20260505070503 65 80 0.0 1.0 0.00 0.00 0.00 50 1009.3
20260505070404 65 77 0.0 1.0 0.00 0.00 0.00 50 1009.3
20260505070303 64 76 0.0 1.0 0.00 0.00 0.00 50 1009.3
20260505070203 64 74 0.0 0.0 0.00 0.00 0.00 51 1009.3
20260505070103 64 74 0.0 0.0 0.00 0.00 0.00 50 1009.3
20260505070003 64 73 0.0 0.0 0.00 0.00 0.00 51 1009.4
20260505065903 64 0 0.0 0.0 0.00 0.00 0.00 52 1009.4
20260505065803 63 0 0.0 0.0 0.00 0.00 0.00 52 1009.4
20260505065704 63 0 0.0 0.0 0.00 0.00 0.00 53 1009.4
20260505065603 63 0 0.0 0.0 0.00 0.00 0.00 53 1009.4
20260505065503 63 0 0.0 1.0 0.00 0.00 0.00 53 1009.4
20260505065403 63 96 0.0 1.0 0.00 0.00 0.00 53 1009.4
20260505065304 63 99 0.0 1.0 0.00 0.00 0.00 55 1009.4
20260505065203 63 99 0.0 1.0 0.00 0.00 0.00 54 1009.4
20260505065103 63 101 0.0 1.0 0.00 0.00 0.00 54 1009.4
20260505065004 63 106 0.0 2.0 0.00 0.00 0.00 55 1009.4
20260505064903 63 108 0.0 2.0 0.00 0.00 0.00 54 1009.4
20260505064803 63 111 1.0 2.0 0.00 0.00 0.00 54 1009.4
20260505064703 63 116 1.0 2.0 0.00 0.00 0.00 54 1009.4
20260505064604 63 125 1.0 2.0 0.00 0.00 0.00 55 1009.4
20260505064503 63 129 1.0 2.0 0.00 0.00 0.00 56 1009.5
20260505064403 62 133 1.0 2.0 0.00 0.00 0.00 57 1009.5
20260505064303 62 135 1.0 2.0 0.00 0.00 0.00 58 1009.5
20260505064204 62 138 0.0 2.0 0.00 0.00 0.00 59 1009.5
20260505064103 61 147 0.0 1.0 0.00 0.00 0.00 59 1009.5
20260505064003 61 157 0.0 1.0 0.00 0.00 0.00 62 1009.5
20260505063903 60 155 1.0 3.0 0.00 0.00 0.00 62 1009.5
20260505063804 60 155 1.0 3.0 0.00 0.00 0.00 62 1009.5
20260505063703 61 155 1.0 3.0 0.00 0.00 0.00 60 1009.5
20260505063603 62 154 1.0 3.0 0.00 0.00 0.00 60 1009.5
20260505063503 62 155 0.0 2.0 0.00 0.00 0.00 59 1009.5
20260505063403 61 158 0.0 1.0 0.00 0.00 0.00 60 1009.5
20260505063303 61 160 0.0 1.0 0.00 0.00 0.00 61 1009.5
20260505063203 61 163 0.0 1.0 0.00 0.00 0.00 61 1009.5
20260505063104 61 166 0.0 1.0 0.00 0.00 0.00 60 1009.5
20260505063004 61 173 0.0 1.0 0.00 0.00 0.00 60 1009.5
20260505062903 61 183 0.0 2.0 0.00 0.00 0.00 61 1009.5
20260505062803 61 188 1.0 2.0 0.00 0.00 0.00 62 1009.5
20260505062703 60 194 1.0 2.0 0.00 0.00 0.00 61 1009.5
20260505062603 60 195 1.0 2.0 0.00 0.00 0.00 61 1009.5
20260505062503 61 200 0.0 2.0 0.00 0.00 0.00 59 1009.5
20260505062403 60 202 0.0 2.0 0.00 0.00 0.00 61 1009.4
20260505062304 60 0 0.0 0.0 0.00 0.00 0.00 61 1009.4
20260505062203 59 0 0.0 0.0 0.00 0.00 0.00 62 1009.4
20260505062103 59 0 0.0 0.0 0.00 0.00 0.00 64 1009.4
20260505062003 58 0 0.0 0.0 0.00 0.00 0.00 65 1009.5
20260505061904 58 175 0.0 1.0 0.00 0.00 0.00 66 1009.5
20260505061803 58 173 0.0 1.0 0.00 0.00 0.00 67 1009.5
20260505061703 57 173 0.0 1.0 0.00 0.00 0.00 66 1009.5
20260505061603 58 163 0.0 1.0 0.00 0.00 0.00 66 1009.5
20260505061503 58 155 0.0 1.0 0.00 0.00 0.00 66 1009.5
20260505061403 58 149 0.0 1.0 0.00 0.00 0.00 66 1009.5
20260505061303 58 144 0.0 1.0 0.00 0.00 0.00 66 1009.5
20260505061204 58 130 0.0 2.0 0.00 0.00 0.00 65 1009.5
20260505061103 58 124 1.0 2.0 0.00 0.00 0.00 65 1009.5
20260505061003 58 120 1.0 2.0 0.00 0.00 0.00 65 1009.5
20260505060903 58 115 1.0 2.0 0.00 0.00 0.00 64 1009.6
20260505060803 58 110 1.0 2.0 0.00 0.00 0.00 65 1009.6
20260505060703 58 102 1.0 2.0 0.00 0.00 0.00 64 1009.6
20260505060603 59 98 1.0 2.0 0.00 0.00 0.00 64 1009.6
20260505060504 59 94 0.0 2.0 0.00 0.00 0.00 64 1009.6
20260505060403 60 92 0.0 1.0 0.00 0.00 0.00 63 1009.6
20260505060303 60 0 0.0 1.0 0.00 0.00 0.00 60 1009.6
20260505060203 61 0 0.0 0.0 0.00 0.00 0.00 60 1009.6
20260505060103 61 0 0.0 0.0 0.00 0.00 0.00 59 1009.6
20260505060003 62 0 0.0 0.0 0.00 0.00 0.00 55 1009.5
20260505055903 62 0 0.0 0.0 0.00 0.00 0.00 54 1009.5
20260505055803 62 0 0.0 0.0 0.00 0.00 0.00 55 1009.5
20260505055704 61 58 0.0 0.0 0.00 0.00 0.00 55 1009.5
20260505055603 61 63 0.0 1.0 0.00 0.00 0.00 55 1009.5
20260505055503 60 68 0.0 1.0 0.00 0.00 0.00 55 1009.5
20260505055403 60 69 0.0 2.0 0.00 0.00 0.00 56 1009.5
20260505055304 60 73 1.0 2.0 0.00 0.00 0.00 57 1009.5
20260505055203 60 75 1.0 2.0 0.00 0.00 0.00 57 1009.5
20260505055103 60 77 1.0 2.0 0.00 0.00 0.00 58 1009.5
20260505055003 60 79 0.0 2.0 0.00 0.00 0.00 59 1009.5
20260505054903 60 79 0.0 2.0 0.00 0.00 0.00 59 1009.5
20260505054803 60 82 0.0 0.0 0.00 0.00 0.00 60 1009.5
20260505054703 59 0 0.0 0.0 0.00 0.00 0.00 61 1009.4
20260505054603 59 0 0.0 0.0 0.00 0.00 0.00 62 1009.4
20260505054503 59 84 0.0 1.0 0.00 0.00 0.00 62 1009.4
20260505054403 58 85 0.0 1.0 0.00 0.00 0.00 61 1009.4
20260505054303 58 85 0.0 1.0 0.00 0.00 0.00 61 1009.4
20260505054203 59 85 0.0 1.0 0.00 0.00 0.00 61 1009.4
20260505054103 58 85 0.0 1.0 0.00 0.00 0.00 61 1009.4
20260505054003 58 0 0.0 0.0 0.00 0.00 0.00 61 1009.4
20260505053904 58 0 0.0 0.0 0.00 0.00 0.00 62 1009.4
20260505053803 58 0 0.0 0.0 0.00 0.00 0.00 62 1009.4
20260505053703 58 0 0.0 0.0 0.00 0.00 0.00 61 1009.4
20260505053603 58 0 0.0 0.0 0.00 0.00 0.00 61 1009.4
20260505053503 58 0 0.0 0.0 0.00 0.00 0.00 61 1009.4
20260505053403 59 0 0.0 0.0 0.00 0.00 0.00 61 1009.5
20260505053303 59 0 0.0 0.0 0.00 0.00 0.00 61 1009.5
20260505053204 59 0 0.0 0.0 0.00 0.00 0.00 61 1009.5
20260505053103 60 0 0.0 0.0 0.00 0.00 0.00 59 1009.5
20260505053003 61 0 0.0 0.0 0.00 0.00 0.00 57 1009.5
20260505052903 61 0 0.0 0.0 0.00 0.00 0.00 58 1009.5
20260505052804 61 0 0.0 0.0 0.00 0.00 0.00 58 1009.5
20260505052703 61 0 0.0 0.0 0.00 0.00 0.00 58 1009.5
20260505052603 61 0 0.0 0.0 0.00 0.00 0.00 57 1009.5
20260505052503 60 0 0.0 0.0 0.00 0.00 0.00 57 1009.5
20260505052404 60 0 0.0 0.0 0.00 0.00 0.00 57 1009.5
20260505052304 60 0 0.0 0.0 0.00 0.00 0.00 58 1009.5
20260505052203 59 0 0.0 0.0 0.00 0.00 0.00 60 1009.5
20260505052103 59 0 0.0 0.0 0.00 0.00 0.00 60 1009.5
20260505052004 59 0 0.0 0.0 0.00 0.00 0.00 59 1009.5
20260505051904 59 0 0.0 0.0 0.00 0.00 0.00 60 1009.5
20260505051803 59 0 0.0 0.0 0.00 0.00 0.00 60 1009.5
20260505051703 59 0 0.0 0.0 0.00 0.00 0.00 60 1009.5
20260505051603 59 0 0.0 0.0 0.00 0.00 0.00 61 1009.4
20260505051504 59 0 0.0 0.0 0.00 0.00 0.00 61 1009.4
20260505051403 59 0 0.0 0.0 0.00 0.00 0.00 61 1009.4
20260505051303 58 0 0.0 0.0 0.00 0.00 0.00 62 1009.4
20260505051203 58 0 0.0 0.0 0.00 0.00 0.00 62 1009.4
20260505051104 58 0 0.0 0.0 0.00 0.00 0.00 62 1009.4
20260505051003 58 0 0.0 0.0 0.00 0.00 0.00 62 1009.4
20260505050903 58 0 0.0 0.0 0.00 0.00 0.00 62 1009.4
20260505050803 59 0 0.0 0.0 0.00 0.00 0.00 61 1009.4
20260505050704 59 0 0.0 0.0 0.00 0.00 0.00 59 1009.4
20260505050603 59 0 0.0 0.0 0.00 0.00 0.00 60 1009.4
20260505050503 59 0 0.0 0.0 0.00 0.00 0.00 59 1009.4
20260505050403 59 0 0.0 0.0 0.00 0.00 0.00 59 1009.4
20260505050303 58 0 0.0 0.0 0.00 0.00 0.00 60 1009.4
20260505050203 57 0 0.0 0.0 0.00 0.00 0.00 60 1009.5
20260505050103 57 0 0.0 0.0 0.00 0.00 0.00 60 1009.5
20260505041704 54 86 1.0 3.0 0.00 0.00 0.00 66 1009.5
20260505041603 54 88 1.0 3.0 0.00 0.00 0.00 66 1009.5
20260505041503 54 91 1.0 2.0 0.00 0.00 0.00 66 1009.5
20260505041403 54 89 1.0 3.0 0.00 0.00 0.00 67 1009.5
20260505041304 54 87 1.0 3.0 0.00 0.00 0.00 68 1009.5
20260505041203 54 84 1.0 3.0 0.00 0.00 0.00 68 1009.5
20260505041103 54 79 1.0 3.0 0.00 0.00 0.00 68 1009.5
20260505041003 54 68 1.0 4.0 0.00 0.00 0.00 67 1009.5
20260505040903 54 65 1.0 4.0 0.00 0.00 0.00 67 1009.5
20260505040803 54 62 2.0 4.0 0.00 0.00 0.00 67 1009.5
20260505040703 54 60 2.0 4.0 0.00 0.00 0.00 67 1009.5
20260505040603 54 58 2.0 3.0 0.00 0.00 0.00 67 1009.5
20260505040503 54 57 1.0 3.0 0.00 0.00 0.00 66 1009.5
20260505040403 54 56 1.0 3.0 0.00 0.00 0.00 65 1009.5
20260505040304 55 57 1.0 2.0 0.00 0.00 0.00 65 1009.6
20260505040203 55 58 1.0 2.0 0.00 0.00 0.00 65 1009.6
20260505040103 55 58 1.0 2.0 0.00 0.00 0.00 64 1009.6
20260505040004 55 59 1.0 2.0 0.00 0.00 0.00 64 1009.6
20260505035904 55 59 1.0 2.0 0.00 0.00 0.00 64 1009.6
20260505035803 55 56 1.0 3.0 0.00 0.00 0.00 64 1009.5
20260505035703 54 54 2.0 3.0 0.00 0.00 0.00 65 1009.5
20260505035603 54 54 2.0 4.0 0.00 0.00 0.00 65 1009.5
20260505035504 54 53 2.0 4.0 0.00 0.00 0.00 65 1009.5
20260505035403 54 52 2.0 4.0 0.00 0.00 0.00 65 1009.5
20260505035304 54 49 3.0 5.0 0.00 0.00 0.00 65 1009.5
20260505035204 54 45 3.0 5.0 0.00 0.00 0.00 66 1009.5
20260505035103 54 40 3.0 5.0 0.00 0.00 0.00 67 1009.5
20260505035003 53 35 2.0 5.0 0.00 0.00 0.00 68 1009.4
20260505034903 53 31 2.0 4.0 0.00 0.00 0.00 70 1009.4
20260505034803 53 25 1.0 3.0 0.00 0.00 0.00 71 1009.4
20260505034703 53 21 0.0 2.0 0.00 0.00 0.00 71 1009.5
20260505034603 53 18 0.0 1.0 0.00 0.00 0.00 70 1009.5
20260505034503 53 18 0.0 1.0 0.00 0.00 0.00 70 1009.5
20260505034403 53 19 0.0 0.0 0.00 0.00 0.00 70 1009.5
20260505034303 53 46 0.0 1.0 0.00 0.00 0.00 69 1009.5
20260505034203 53 48 0.0 1.0 0.00 0.00 0.00 69 1009.5
20260505034104 53 53 0.0 1.0 0.00 0.00 0.00 69 1009.5
20260505034003 53 57 1.0 3.0 0.00 0.00 0.00 69 1009.5
20260505033903 53 57 1.0 3.0 0.00 0.00 0.00 69 1009.4
20260505033803 53 56 2.0 3.0 0.00 0.00 0.00 69 1009.4
20260505033703 53 54 2.0 3.0 0.00 0.00 0.00 69 1009.4
20260505033603 53 52 2.0 3.0 0.00 0.00 0.00 69 1009.4
20260505033503 53 50 2.0 3.0 0.00 0.00 0.00 68 1009.4
20260505033403 53 48 2.0 3.0 0.00 0.00 0.00 68 1009.4
20260505033303 53 46 2.0 3.0 0.00 0.00 0.00 68 1009.4
20260505033203 53 41 2.0 3.0 0.00 0.00 0.00 69 1009.4
20260505033104 53 33 1.0 2.0 0.00 0.00 0.00 69 1009.4
20260505033003 54 23 1.0 2.0 0.00 0.00 0.00 68 1009.4
20260505032903 54 15 1.0 2.0 0.00 0.00 0.00 68 1009.5
20260505032803 54 10 1.0 2.0 0.00 0.00 0.00 68 1009.5
20260505032703 54 7 1.0 2.0 0.00 0.00 0.00 67 1009.5
20260505032603 54 4 1.0 2.0 0.00 0.00 0.00 67 1009.5
20260505032503 54 1 0.0 2.0 0.00 0.00 0.00 67 1009.6
20260505032403 54 0 0.0 0.0 0.00 0.00 0.00 67 1009.6
20260505032304 54 0 0.0 0.0 0.00 0.00 0.00 67 1009.6
20260505032203 54 0 0.0 0.0 0.00 0.00 0.00 66 1009.6
20260505032104 54 0 0.0 0.0 0.00 0.00 0.00 66 1009.6
20260505032003 54 0 0.0 0.0 0.00 0.00 0.00 66 1009.6
20260505031903 54 0 0.0 0.0 0.00 0.00 0.00 66 1009.6
20260505031803 54 0 0.0 0.0 0.00 0.00 0.00 67 1009.6
20260505031703 54 0 0.0 0.0 0.00 0.00 0.00 67 1009.6
20260505031603 54 0 0.0 0.0 0.00 0.00 0.00 67 1009.6
20260505031503 54 309 0.0 1.0 0.00 0.00 0.00 67 1009.6
20260505031404 54 314 0.0 1.0 0.00 0.00 0.00 67 1009.6
20260505031303 54 319 0.0 2.0 0.00 0.00 0.00 67 1009.6
20260505031203 54 322 1.0 2.0 0.00 0.00 0.00 66 1009.6
20260505031103 54 327 1.0 2.0 0.00 0.00 0.00 67 1009.6
20260505031003 54 331 1.0 2.0 0.00 0.00 0.00 67 1009.6
20260505030903 54 335 0.0 1.0 0.00 0.00 0.00 67 1009.6
20260505030803 54 340 0.0 1.0 0.00 0.00 0.00 66 1009.6
20260505030703 54 345 0.0 1.0 0.00 0.00 0.00 66 1009.6
20260505030603 54 0 0.0 1.0 0.00 0.00 0.00 66 1009.6
20260505030503 55 2 0.0 1.0 0.00 0.00 0.00 66 1009.6
20260505030404 55 3 0.0 1.0 0.00 0.00 0.00 66 1009.6
20260505030303 55 3 0.0 1.0 0.00 0.00 0.00 65 1009.6
20260505030203 55 5 0.0 1.0 0.00 0.00 0.00 64 1009.6
20260505030103 55 24 0.0 1.0 0.00 0.00 0.00 65 1009.6
20260505030004 55 35 0.0 1.0 0.00 0.00 0.00 64 1009.6
20260505025903 55 38 0.0 1.0 0.00 0.00 0.00 64 1009.6
20260505025803 55 41 0.0 1.0 0.00 0.00 0.00 65 1009.6
20260505025703 55 47 0.0 1.0 0.00 0.00 0.00 65 1009.6
20260505025604 55 51 0.0 1.0 0.00 0.00 0.00 65 1009.6
20260505025503 55 55 0.0 1.0 0.00 0.00 0.00 65 1009.6
20260505025403 55 59 0.0 1.0 0.00 0.00 0.00 65 1009.6
20260505025305 55 0 0.0 0.0 0.00 0.00 0.00 65 1009.6
20260505025203 55 0 0.0 0.0 0.00 0.00 0.00 65 1009.7
20260505025103 55 0 0.0 0.0 0.00 0.00 0.00 64 1009.7
20260505025004 55 108 0.0 1.0 0.00 0.00 0.00 64 1009.7
20260505024904 56 114 0.0 1.0 0.00 0.00 0.00 64 1009.7
20260505024803 56 117 0.0 1.0 0.00 0.00 0.00 63 1009.7
20260505024703 56 117 0.0 1.0 0.00 0.00 0.00 63 1009.6
20260505024603 56 118 0.0 1.0 0.00 0.00 0.00 62 1009.6
20260505024504 56 123 0.0 1.0 0.00 0.00 0.00 61 1009.6
20260505024403 56 0 0.0 0.0 0.00 0.00 0.00 61 1009.6
20260505024303 57 158 0.0 0.0 0.00 0.00 0.00 61 1009.6
20260505024203 57 158 0.0 0.0 0.00 0.00 0.00 60 1009.6
20260505024104 57 158 0.0 0.0 0.00 0.00 0.00 60 1009.7
20260505024003 57 173 0.0 1.0 0.00 0.00 0.00 60 1009.7
20260505023903 57 177 0.0 1.0 0.00 0.00 0.00 60 1009.7
20260505023803 56 176 1.0 1.0 0.00 0.00 0.00 61 1009.7
20260505023703 56 175 1.0 1.0 0.00 0.00 0.00 62 1009.7
20260505023603 56 171 1.0 1.0 0.00 0.00 0.00 63 1009.7
20260505023503 56 167 1.0 2.0 0.00 0.00 0.00 62 1009.7
20260505023404 56 161 1.0 2.0 0.00 0.00 0.00 62 1009.7
20260505023303 56 158 1.0 2.0 0.00 0.00 0.00 63 1009.7
20260505023203 56 153 1.0 2.0 0.00 0.00 0.00 63 1009.7
20260505023103 56 151 1.0 2.0 0.00 0.00 0.00 62 1009.7
20260505023004 57 153 0.0 2.0 0.00 0.00 0.00 61 1009.7
20260505022904 57 157 1.0 2.0 0.00 0.00 0.00 61 1009.8
20260505022803 57 162 1.0 2.0 0.00 0.00 0.00 60 1009.8
20260505022703 57 169 1.0 3.0 0.00 0.00 0.00 60 1009.8
20260505022604 57 174 1.0 4.0 0.00 0.00 0.00 60 1009.8
20260505022503 57 178 2.0 4.0 0.00 0.00 0.00 60 1009.8
20260505022403 57 180 2.0 4.0 0.00 0.00 0.00 59 1009.8
20260505022304 57 183 2.0 4.0 0.00 0.00 0.00 59 1009.8
20260505022204 57 185 2.0 4.0 0.00 0.00 0.00 59 1009.8
20260505022103 57 187 2.0 4.0 0.00 0.00 0.00 59 1009.8
20260505022004 57 188 2.0 4.0 0.00 0.00 0.00 59 1009.8
20260505021903 57 188 2.0 4.0 0.00 0.00 0.00 59 1009.8
20260505021803 57 188 2.0 4.0 0.00 0.00 0.00 59 1009.8
20260505021703 57 189 2.0 4.0 0.00 0.00 0.00 60 1009.8
20260505021604 57 192 2.0 3.0 0.00 0.00 0.00 60 1009.8
20260505021503 57 194 1.0 3.0 0.00 0.00 0.00 60 1009.8
20260505021403 57 202 1.0 2.0 0.00 0.00 0.00 61 1009.8
20260505021303 56 207 1.0 2.0 0.00 0.00 0.00 61 1009.9
20260505021204 56 218 1.0 3.0 0.00 0.00 0.00 62 1009.9
20260505021104 56 222 1.0 3.0 0.00 0.00 0.00 63 1009.9
20260505021004 56 228 1.0 3.0 0.00 0.00 0.00 63 1009.9
20260505020903 56 228 1.0 3.0 0.00 0.00 0.00 63 1009.9
20260505020803 56 227 1.0 2.0 0.00 0.00 0.00 64 1009.9
20260505020703 56 222 1.0 2.0 0.00 0.00 0.00 64 1009.9
20260505020604 56 214 0.0 2.0 0.00 0.00 0.00 64 1010.0
20260505020504 56 204 1.0 3.0 0.00 0.00 0.00 64 1010.0
20260505020403 56 199 1.0 3.0 0.00 0.00 0.00 63 1010.0
20260505020303 56 197 2.0 4.0 0.00 0.00 0.00 63 1010.0
20260505020203 56 197 2.0 4.0 0.00 0.00 0.00 62 1009.9
20260505020103 56 198 2.0 4.0 0.00 0.00 0.00 62 1009.9
20260505020004 56 200 2.0 4.0 0.00 0.00 0.00 63 1009.9
20260505015904 56 207 1.0 4.0 0.00 0.00 0.00 64 1009.9
20260505015804 56 209 1.0 2.0 0.00 0.00 0.00 64 1009.9
20260505015704 56 211 1.0 2.0 0.00 0.00 0.00 65 1009.9
20260505015604 56 212 1.0 2.0 0.00 0.00 0.00 64 1009.9
20260505015503 56 216 0.0 2.0 0.00 0.00 0.00 64 1009.9
20260505015404 56 211 0.0 1.0 0.00 0.00 0.00 63 1009.9